Observation data for Earth on 12/10/2018      Previous  Date       Current Mesonet Observations  Soil Data  Daily Summary Page  Observations in Plain Language
KEA1 100600Z 26008KT M03/M04 A3038 RMK A01 T10301042  RH  091%=      5-min Rain = 0
KEA1 100601Z 27008KT M03/M04 A3038 RMK A01 T10301042  RH  091%=      5-min Rain = 0
KEA1 100602Z 27008KT M03/M04 A3038 RMK A01 T10311043  RH  091%=      5-min Rain = 0
KEA1 100603Z 26008KT M03/M04 A3038 RMK A01 T10311043  RH  091%=      5-min Rain = 0
KEA1 100604Z 26008KT M03/M04 A3038 RMK A01 T10321044  RH  091%=      5-min Rain = 0
KEA1 100605Z 26009KT M03/M04 A3038 RMK A01 T10321044  RH  092%=      5-min Rain = 0
KEA1 100606Z 26009KT M03/M04 A3038 RMK A01 T10321044  RH  092%=      5-min Rain = 0
KEA1 100607Z 26009KT M03/M04 A3038 RMK A01 T10331044  RH  092%=      5-min Rain = 0
KEA1 100608Z 26009KT M03/M04 A3038 RMK A01 T10321044  RH  092%=      5-min Rain = 0
KEA1 100609Z 26009KT M03/M04 A3038 RMK A01 T10321043  RH  092%=      5-min Rain = 0
KEA1 100610Z 26008KT M03/M04 A3038 RMK A01 T10321043  RH  092%=      5-min Rain = 0
KEA1 100611Z 26008KT M03/M04 A3038 RMK A01 T10311042  RH  092%=      5-min Rain = 0
KEA1 100612Z 26008KT M03/M04 A3038 RMK A01 T10311042  RH  092%=      5-min Rain = 0
KEA1 100613Z 25008KT M03/M04 A3038 RMK A01 T10311042  RH  092%=      5-min Rain = 0
KEA1 100614Z 26008KT M03/M04 A3038 RMK A01 T10311043  RH  092%=      5-min Rain = 0
KEA1 100615Z 26008KT M03/M04 A3038 RMK A01 T10311043  RH  092%=      5-min Rain = 0
KEA1 100616Z 26008KT M03/M04 A3038 RMK A01 T10311042  RH  092%=      5-min Rain = 0
KEA1 100617Z 26008KT M03/M04 A3038 RMK A01 T10311042  RH  092%=      5-min Rain = 0
KEA1 100618Z 26008KT M03/M04 A3038 RMK A01 T10311042  RH  092%=      5-min Rain = 0
KEA1 100619Z 26008KT M03/M04 A3038 RMK A01 T10311043  RH  092%=      5-min Rain = 0
KEA1 100620Z 26008KT M03/M04 A3038 RMK A01 T10311043  RH  092%=      5-min Rain = 0
KEA1 100621Z 26008KT M03/M04 A3038 RMK A01 T10311042  RH  092%=      5-min Rain = 0
KEA1 100622Z 26008KT M03/M04 A3038 RMK A01 T10301041  RH  092%=      5-min Rain = 0
KEA1 100623Z 25008KT M03/M04 A3038 RMK A01 T10301041  RH  092%=      5-min Rain = 0
KEA1 100624Z 25008KT M03/M04 A3038 RMK A01 T10301042  RH  092%=      5-min Rain = 0
KEA1 100625Z 25009KT M03/M04 A3038 RMK A01 T10301042  RH  092%=      5-min Rain = 0
KEA1 100626Z 25009KT M03/M04 A3038 RMK A01 T10291041  RH  092%=      5-min Rain = 0
KEA1 100627Z 25009KT M03/M04 A3038 RMK A01 T10281040  RH  091%=      5-min Rain = 0
KEA1 100628Z 26009KT M03/M04 A3038 RMK A01 T10281040  RH  091%=      5-min Rain = 0
KEA1 100629Z 25009KT M03/M04 A3038 RMK A01 T10281040  RH  091%=      5-min Rain = 0
KEA1 100630Z 25009KT M03/M04 A3038 RMK A01 T10271040  RH  091%=      5-min Rain = 0
KEA1 100631Z 26009KT M03/M04 A3038 RMK A01 T10271040  RH  090%=      5-min Rain = 0
KEA1 100632Z 26009KT M03/M04 A3038 RMK A01 T10271041  RH  090%=      5-min Rain = 0
KEA1 100633Z 25008KT M03/M04 A3038 RMK A01 T10271041  RH  090%=      5-min Rain = 0
KEA1 100634Z 26008KT M03/M04 A3038 RMK A01 T10271042  RH  090%=      5-min Rain = 0
KEA1 100635Z 25008KT M03/M04 A3038 RMK A01 T10281042  RH  090%=      5-min Rain = 0
KEA1 100636Z 25008KT M03/M04 A3038 RMK A01 T10281042  RH  090%=      5-min Rain = 0
KEA1 100637Z 25008KT M03/M04 A3038 RMK A01 T10281042  RH  090%=      5-min Rain = 0
KEA1 100638Z 25009KT M03/M04 A3038 RMK A01 T10281042  RH  090%=      5-min Rain = 0
KEA1 100639Z 26009KT M03/M04 A3038 RMK A01 T10281042  RH  090%=      5-min Rain = 0
KEA1 100640Z 26009KT M03/M04 A3038 RMK A01 T10281042  RH  090%=      5-min Rain = 0
KEA1 100641Z 26009KT M03/M04 A3038 RMK A01 T10281042  RH  090%=      5-min Rain = 0
KEA1 100642Z 26009KT M03/M04 A3038 RMK A01 T10281042  RH  090%=      5-min Rain = 0
KEA1 100643Z 26008KT M03/M04 A3038 RMK A01 T10271041  RH  090%=      5-min Rain = 0
KEA1 100644Z 26008KT M03/M04 A3037 RMK A01 T10281042  RH  090%=      5-min Rain = 0
KEA1 100645Z 26008KT M03/M04 A3037 RMK A01 T10271042  RH  090%=      5-min Rain = 0
KEA1 100646Z 26008KT M03/M04 A3037 RMK A01 T10281042  RH  090%=      5-min Rain = 0
KEA1 100647Z 26008KT M03/M04 A3037 RMK A01 T10271041  RH  090%=      5-min Rain = 0
KEA1 100648Z 26008KT M03/M04 A3037 RMK A01 T10271041  RH  090%=      5-min Rain = 0
KEA1 100649Z 26008KT M03/M04 A3037 RMK A01 T10271043  RH  089%=      5-min Rain = 0
KEA1 100650Z 26008KT M03/M04 A3037 RMK A01 T10281043  RH  089%=      5-min Rain = 0
KEA1 100651Z 26008KT M03/M04 A3037 RMK A01 T10291044  RH  089%=      5-min Rain = 0
KEA1 100652Z 26008KT M03/M04 A3037 RMK A01 T10291044  RH  089%=      5-min Rain = 0
KEA1 100653Z 26008KT M03/M04 A3037 RMK A01 T10291044  RH  090%=      5-min Rain = 0
KEA1 100654Z 26008KT M03/M04 A3037 RMK A01 T10291044  RH  090%=      5-min Rain = 0
KEA1 100655Z 26008KT M03/M05 A3037 RMK A01 T10301045  RH  090%=      5-min Rain = 0
KEA1 100656Z 26008KT M03/M05 A3037 RMK A01 T10311045  RH  090%=      5-min Rain = 0
KEA1 100657Z 26008KT M03/M05 A3037 RMK A01 T10311045  RH  090%=      5-min Rain = 0
KEA1 100658Z 26008KT M03/M05 A3037 RMK A01 T10321046  RH  090%=      5-min Rain = 0
KEA1 100659Z 26008KT M03/M05 A3037 RMK A01 T10331047  RH  090%=      5-min Rain = 0
KEA1 100700Z 26008KT M03/M05 A3037 RMK A01 T10321046  RH  090%=      5-min Rain = 0
KEA1 100701Z 26008KT M03/M05 A3037 RMK A01 T10331047  RH  090%=      5-min Rain = 0
KEA1 100702Z 26008KT M03/M05 A3037 RMK A01 T10331046  RH  090%=      5-min Rain = 0
KEA1 100703Z 26008KT M03/M05 A3037 RMK A01 T10331047  RH  090%=      5-min Rain = 0
KEA1 100704Z 26008KT M03/M05 A3037 RMK A01 T10331047  RH  091%=      5-min Rain = 0
KEA1 100705Z 26008KT M03/M05 A3037 RMK A01 T10341047  RH  091%=      5-min Rain = 0
KEA1 100706Z 26008KT M03/M05 A3037 RMK A01 T10331046  RH  091%=      5-min Rain = 0
KEA1 100707Z 26008KT M03/M05 A3037 RMK A01 T10341046  RH  091%=      5-min Rain = 0
KEA1 100708Z 26008KT M03/M05 A3037 RMK A01 T10341047  RH  091%=      5-min Rain = 0
KEA1 100709Z 26008KT M03/M05 A3036 RMK A01 T10341048  RH  090%=      5-min Rain = 0
KEA1 100710Z 26008KT M04/M05 A3036 RMK A01 T10351048  RH  090%=      5-min Rain = 0
KEA1 100711Z 26008KT M04/M05 A3036 RMK A01 T10351048  RH  091%=      5-min Rain = 0
KEA1 100712Z 26008KT M04/M05 A3036 RMK A01 T10351048  RH  091%=      5-min Rain = 0
KEA1 100713Z 26009KT M04/M05 A3036 RMK A01 T10351048  RH  090%=      5-min Rain = 0
KEA1 100714Z 26009KT M04/M05 A3036 RMK A01 T10351049  RH  090%=      5-min Rain = 0
KEA1 100715Z 26009KT M04/M05 A3036 RMK A01 T10361049  RH  090%=      5-min Rain = 0
KEA1 100716Z 26008KT M04/M05 A3036 RMK A01 T10351049  RH  090%=      5-min Rain = 0
KEA1 100717Z 26008KT M04/M05 A3036 RMK A01 T10361049  RH  090%=      5-min Rain = 0
KEA1 100718Z 26008KT M04/M05 A3036 RMK A01 T10361050  RH  090%=      5-min Rain = 0
KEA1 100719Z 26009KT M04/M05 A3036 RMK A01 T10371050  RH  090%=      5-min Rain = 0
KEA1 100720Z 26008KT M04/M05 A3036 RMK A01 T10371050  RH  090%=      5-min Rain = 0
KEA1 100721Z 26008KT M04/M05 A3036 RMK A01 T10371051  RH  090%=      5-min Rain = 0
KEA1 100722Z 26008KT M04/M05 A3036 RMK A01 T10381051  RH  090%=      5-min Rain = 0
KEA1 100723Z 26008KT M04/M05 A3036 RMK A01 T10381051  RH  090%=      5-min Rain = 0
KEA1 100724Z 26008KT M04/M05 A3036 RMK A01 T10381051  RH  090%=      5-min Rain = 0
KEA1 100725Z 26008KT M04/M05 A3036 RMK A01 T10381052  RH  090%=      5-min Rain = 0
KEA1 100726Z 26008KT M04/M05 A3036 RMK A01 T10391052  RH  090%=      5-min Rain = 0
KEA1 100727Z 26008KT M04/M05 A3036 RMK A01 T10391052  RH  090%=      5-min Rain = 0
KEA1 100728Z 26008KT M04/M05 A3036 RMK A01 T10391053  RH  090%=      5-min Rain = 0
KEA1 100729Z 26008KT M04/M05 A3036 RMK A01 T10401053  RH  091%=      5-min Rain = 0
KEA1 100730Z 26008KT M04/M05 A3036 RMK A01 T10391053  RH  091%=      5-min Rain = 0
KEA1 100731Z 26008KT M04/M05 A3036 RMK A01 T10401052  RH  091%=      5-min Rain = 0
KEA1 100732Z 26008KT M04/M05 A3036 RMK A01 T10391052  RH  091%=      5-min Rain = 0
KEA1 100733Z 26008KT M04/M05 A3036 RMK A01 T10391052  RH  091%=      5-min Rain = 0
KEA1 100734Z 26008KT M04/M05 A3036 RMK A01 T10401053  RH  091%=      5-min Rain = 0
KEA1 100735Z 26008KT M04/M05 A3036 RMK A01 T10391052  RH  091%=      5-min Rain = 0
KEA1 100736Z 26008KT M04/M05 A3036 RMK A01 T10391052  RH  091%=      5-min Rain = 0
KEA1 100737Z 26008KT M04/M05 A3036 RMK A01 T10391052  RH  091%=      5-min Rain = 0
KEA1 100738Z 26008KT M04/M05 A3036 RMK A01 T10391052  RH  091%=      5-min Rain = 0
KEA1 100739Z 26008KT M04/M05 A3036 RMK A01 T10401053  RH  091%=      5-min Rain = 0
KEA1 100740Z 26008KT M04/M05 A3036 RMK A01 T10401052  RH  091%=      5-min Rain = 0
KEA1 100741Z 26008KT M04/M05 A3036 RMK A01 T10401052  RH  091%=      5-min Rain = 0
KEA1 100742Z 26008KT M04/M05 A3036 RMK A01 T10401052  RH  091%=      5-min Rain = 0
KEA1 100743Z 26008KT M04/M05 A3036 RMK A01 T10401052  RH  091%=      5-min Rain = 0
KEA1 100744Z 26008KT M04/M05 A3036 RMK A01 T10401053  RH  091%=      5-min Rain = 0
KEA1 100745Z 27008KT M04/M05 A3036 RMK A01 T10401053  RH  091%=      5-min Rain = 0
KEA1 100746Z 26008KT M04/M05 A3036 RMK A01 T10411053  RH  091%=      5-min Rain = 0
KEA1 100747Z 27008KT M04/M05 A3036 RMK A01 T10421054  RH  091%=      5-min Rain = 0
KEA1 100748Z 27008KT M04/M06 A3036 RMK A01 T10421055  RH  091%=      5-min Rain = 0
KEA1 100749Z 27008KT M04/M06 A3036 RMK A01 T10421055  RH  091%=      5-min Rain = 0
KEA1 100750Z 27008KT M04/M06 A3036 RMK A01 T10431055  RH  091%=      5-min Rain = 0
KEA1 100751Z 27008KT M04/M06 A3036 RMK A01 T10431056  RH  091%=      5-min Rain = 0
KEA1 100752Z 26008KT M04/M06 A3035 RMK A01 T10431056  RH  091%=      5-min Rain = 0
KEA1 100753Z 26008KT M04/M06 A3035 RMK A01 T10431055  RH  091%=      5-min Rain = 0
KEA1 100754Z 26008KT M04/M06 A3035 RMK A01 T10441055  RH  092%=      5-min Rain = 0
KEA1 100755Z 26008KT M04/M06 A3035 RMK A01 T10441055  RH  092%=      5-min Rain = 0
KEA1 100756Z 26009KT M04/M05 A3035 RMK A01 T10431054  RH  092%=      5-min Rain = 0
KEA1 100757Z 26008KT M04/M05 A3035 RMK A01 T10431054  RH  092%=      5-min Rain = 0
KEA1 100758Z 26009KT M04/M05 A3035 RMK A01 T10431054  RH  092%=      5-min Rain = 0
KEA1 100759Z 26009KT M04/M05 A3035 RMK A01 T10421053  RH  092%=      5-min Rain = 0
KEA1 100800Z 26009KT M04/M05 A3035 RMK A01 T10411052  RH  092%=      5-min Rain = 0
KEA1 100801Z 26009KT M04/M05 A3035 RMK A01 T10411052  RH  092%=      5-min Rain = 0
KEA1 100802Z 26009KT M04/M05 A3035 RMK A01 T10401052  RH  092%=      5-min Rain = 0
KEA1 100803Z 26009KT M04/M05 A3035 RMK A01 T10401051  RH  092%=      5-min Rain = 0
KEA1 100804Z 26009KT M04/M05 A3035 RMK A01 T10391051  RH  092%=      5-min Rain = 0
KEA1 100805Z 26009KT M04/M05 A3035 RMK A01 T10391051  RH  092%=      5-min Rain = 0
KEA1 100806Z 26009KT M04/M05 A3035 RMK A01 T10391051  RH  091%=      5-min Rain = 0
KEA1 100807Z 26009KT M04/M05 A3035 RMK A01 T10391051  RH  091%=      5-min Rain = 0
KEA1 100808Z 26009KT M04/M05 A3035 RMK A01 T10381050  RH  091%=      5-min Rain = 0
KEA1 100809Z 26009KT M04/M05 A3035 RMK A01 T10381051  RH  091%=      5-min Rain = 0
KEA1 100810Z 26009KT M04/M05 A3035 RMK A01 T10391052  RH  091%=      5-min Rain = 0
KEA1 100811Z 26009KT M04/M05 A3035 RMK A01 T10391052  RH  091%=      5-min Rain = 0
KEA1 100812Z 25008KT M04/M05 A3035 RMK A01 T10391053  RH  091%=      5-min Rain = 0
KEA1 100813Z 25008KT M04/M05 A3035 RMK A01 T10401053  RH  091%=      5-min Rain = 0
KEA1 100814Z 26009KT M04/M05 A3035 RMK A01 T10401053  RH  091%=      5-min Rain = 0
KEA1 100815Z 26009KT M04/M05 A3035 RMK A01 T10401053  RH  091%=      5-min Rain = 0
KEA1 100816Z 26009KT M04/M05 A3035 RMK A01 T10401053  RH  091%=      5-min Rain = 0
KEA1 100817Z 26008KT M04/M05 A3035 RMK A01 T10401053  RH  091%=      5-min Rain = 0
KEA1 100818Z 26008KT M04/M05 A3035 RMK A01 T10401053  RH  091%=      5-min Rain = 0
KEA1 100819Z 26008KT M04/M05 A3035 RMK A01 T10411053  RH  091%=      5-min Rain = 0
KEA1 100820Z 26008KT M04/M05 A3035 RMK A01 T10411054  RH  091%=      5-min Rain = 0
KEA1 100821Z 26008KT M04/M05 A3035 RMK A01 T10421054  RH  091%=      5-min Rain = 0
KEA1 100822Z 26007KT M04/M06 A3035 RMK A01 T10421055  RH  091%=      5-min Rain = 0
KEA1 100823Z 26008KT M04/M06 A3035 RMK A01 T10421055  RH  091%=      5-min Rain = 0
KEA1 100824Z 26008KT M04/M06 A3035 RMK A01 T10431055  RH  091%=      5-min Rain = 0
KEA1 100825Z 26007KT M04/M05 A3035 RMK A01 T10431054  RH  091%=      5-min Rain = 0
KEA1 100826Z 25007KT M04/M05 A3035 RMK A01 T10431054  RH  092%=      5-min Rain = 0
KEA1 100827Z 26008KT M04/M06 A3035 RMK A01 T10431055  RH  091%=      5-min Rain = 0
KEA1 100828Z 26007KT M04/M06 A3035 RMK A01 T10441055  RH  091%=      5-min Rain = 0
KEA1 100829Z 26007KT M04/M06 A3035 RMK A01 T10441055  RH  092%=      5-min Rain = 0
KEA1 100830Z 25007KT M04/M06 A3035 RMK A01 T10441055  RH  092%=      5-min Rain = 0
KEA1 100831Z 25007KT M04/M05 A3035 RMK A01 T10431054  RH  092%=      5-min Rain = 0
KEA1 100832Z 25007KT M04/M05 A3035 RMK A01 T10431054  RH  092%=      5-min Rain = 0
KEA1 100833Z 25008KT M04/M05 A3035 RMK A01 T10421053  RH  092%=      5-min Rain = 0
KEA1 100834Z 26007KT M04/M05 A3035 RMK A01 T10421052  RH  092%=      5-min Rain = 0
KEA1 100835Z 26008KT M04/M05 A3035 RMK A01 T10411053  RH  092%=      5-min Rain = 0
KEA1 100836Z 26007KT M04/M05 A3035 RMK A01 T10421053  RH  092%=      5-min Rain = 0
KEA1 100837Z 26007KT M04/M05 A3035 RMK A01 T10421054  RH  092%=      5-min Rain = 0
KEA1 100838Z 26007KT M04/M06 A3035 RMK A01 T10431055  RH  091%=      5-min Rain = 0
KEA1 100839Z 25007KT M04/M05 A3035 RMK A01 T10431054  RH  091%=      5-min Rain = 0
KEA1 100840Z 26007KT M04/M05 A3035 RMK A01 T10431054  RH  092%=      5-min Rain = 0
KEA1 100841Z 26008KT M04/M05 A3035 RMK A01 T10431054  RH  092%=      5-min Rain = 0
KEA1 100842Z 26008KT M04/M05 A3035 RMK A01 T10421053  RH  092%=      5-min Rain = 0
KEA1 100843Z 26007KT M04/M05 A3035 RMK A01 T10421052  RH  092%=      5-min Rain = 0
KEA1 100844Z 26007KT M04/M05 A3035 RMK A01 T10411052  RH  092%=      5-min Rain = 0
KEA1 100845Z 26007KT M04/M05 A3035 RMK A01 T10411052  RH  092%=      5-min Rain = 0
KEA1 100846Z 26007KT M04/M05 A3035 RMK A01 T10401051  RH  092%=      5-min Rain = 0
KEA1 100847Z 26007KT M04/M05 A3035 RMK A01 T10411052  RH  092%=      5-min Rain = 0
KEA1 100848Z 26007KT M04/M05 A3035 RMK A01 T10411052  RH  092%=      5-min Rain = 0
KEA1 100849Z 26006KT M04/M05 A3035 RMK A01 T10411052  RH  092%=      5-min Rain = 0
KEA1 100850Z 26006KT M04/M05 A3035 RMK A01 T10411052  RH  092%=      5-min Rain = 0
KEA1 100851Z 26006KT M04/M05 A3035 RMK A01 T10411053  RH  092%=      5-min Rain = 0
KEA1 100852Z 26006KT M04/M05 A3035 RMK A01 T10421053  RH  092%=      5-min Rain = 0
KEA1 100853Z 26006KT M04/M05 A3035 RMK A01 T10421054  RH  092%=      5-min Rain = 0
KEA1 100854Z 26006KT M04/M05 A3035 RMK A01 T10421054  RH  092%=      5-min Rain = 0
KEA1 100855Z 26006KT M04/M05 A3035 RMK A01 T10431054  RH  092%=      5-min Rain = 0
KEA1 100856Z 26007KT M04/M05 A3035 RMK A01 T10431054  RH  092%=      5-min Rain = 0
KEA1 100857Z 27007KT M04/M05 A3035 RMK A01 T10431054  RH  092%=      5-min Rain = 0
KEA1 100858Z 27007KT M04/M06 A3035 RMK A01 T10441055  RH  092%=      5-min Rain = 0
KEA1 100859Z 27006KT M04/M06 A3035 RMK A01 T10441055  RH  092%=      5-min Rain = 0
KEA1 100900Z 27006KT M04/M06 A3035 RMK A01 T10441055  RH  092%=      5-min Rain = 0
KEA1 100901Z 26006KT M05/M06 A3035 RMK A01 T10451056  RH  092%=      5-min Rain = 0
KEA1 100902Z 27006KT M05/M06 A3035 RMK A01 T10451056  RH  092%=      5-min Rain = 0
KEA1 100903Z 26006KT M05/M06 A3035 RMK A01 T10451056  RH  092%=      5-min Rain = 0
KEA1 100904Z 26006KT M05/M06 A3035 RMK A01 T10461056  RH  092%=      5-min Rain = 0
KEA1 100905Z 27007KT M05/M06 A3035 RMK A01 T10461057  RH  092%=      5-min Rain = 0
KEA1 100906Z 27007KT M05/M06 A3035 RMK A01 T10471057  RH  092%=      5-min Rain = 0
KEA1 100907Z 26007KT M05/M06 A3035 RMK A01 T10471057  RH  092%=      5-min Rain = 0
KEA1 100908Z 27007KT M05/M06 A3035 RMK A01 T10471057  RH  093%=      5-min Rain = 0
KEA1 100909Z 27007KT M05/M06 A3035 RMK A01 T10471057  RH  093%=      5-min Rain = 0
KEA1 100910Z 26007KT M05/M06 A3035 RMK A01 T10471057  RH  093%=      5-min Rain = 0
KEA1 100911Z 27007KT M05/M06 A3035 RMK A01 T10471057  RH  093%=      5-min Rain = 0
KEA1 100912Z 26007KT M05/M06 A3035 RMK A01 T10481058  RH  093%=      5-min Rain = 0
KEA1 100913Z 27008KT M05/M06 A3035 RMK A01 T10481058  RH  093%=      5-min Rain = 0
KEA1 100914Z 26008KT M05/M06 A3035 RMK A01 T10481058  RH  093%=      5-min Rain = 0
KEA1 100915Z 26008KT M05/M06 A3035 RMK A01 T10481058  RH  093%=      5-min Rain = 0
KEA1 100916Z 26008KT M05/M06 A3035 RMK A01 T10491058  RH  093%=      5-min Rain = 0
KEA1 100917Z 26008KT M05/M06 A3035 RMK A01 T10481058  RH  093%=      5-min Rain = 0
KEA1 100918Z 26009KT M05/M06 A3035 RMK A01 T10491058  RH  093%=      5-min Rain = 0
KEA1 100919Z 26008KT M05/M06 A3035 RMK A01 T10491058  RH  093%=      5-min Rain = 0
KEA1 100920Z 26009KT M05/M06 A3035 RMK A01 T10481058  RH  093%=      5-min Rain = 0
KEA1 100921Z 26009KT M05/M06 A3035 RMK A01 T10491058  RH  093%=      5-min Rain = 0
KEA1 100922Z 26009KT M05/M06 A3035 RMK A01 T10491058  RH  093%=      5-min Rain = 0
KEA1 100923Z 26009KT M05/M06 A3035 RMK A01 T10491058  RH  093%=      5-min Rain = 0
KEA1 100924Z 27009KT M05/M06 A3035 RMK A01 T10491058  RH  093%=      5-min Rain = 0
KEA1 100925Z 27008KT M05/M06 A3035 RMK A01 T10491058  RH  093%=      5-min Rain = 0
KEA1 100926Z 26009KT M05/M06 A3035 RMK A01 T10491058  RH  093%=      5-min Rain = 0
KEA1 100927Z 26008KT M05/M06 A3035 RMK A01 T10491058  RH  093%=      5-min Rain = 0
KEA1 100928Z 26009KT M05/M06 A3035 RMK A01 T10491058  RH  093%=      5-min Rain = 0
KEA1 100929Z 26009KT M05/M06 A3035 RMK A01 T10481057  RH  094%=      5-min Rain = 0
KEA1 100930Z 26008KT M05/M06 A3035 RMK A01 T10481057  RH  094%=      5-min Rain = 0
KEA1 100931Z 26009KT M05/M06 A3035 RMK A01 T10481057  RH  094%=      5-min Rain = 0
KEA1 100932Z 26008KT M05/M06 A3035 RMK A01 T10481057  RH  093%=      5-min Rain = 0
KEA1 100933Z 26008KT M05/M06 A3035 RMK A01 T10481057  RH  093%=      5-min Rain = 0
KEA1 100934Z 27008KT M05/M06 A3035 RMK A01 T10481057  RH  093%=      5-min Rain = 0
KEA1 100935Z 26009KT M05/M06 A3035 RMK A01 T10481057  RH  093%=      5-min Rain = 0
KEA1 100936Z 26009KT M05/M06 A3035 RMK A01 T10481058  RH  093%=      5-min Rain = 0
KEA1 100937Z 26009KT M05/M06 A3035 RMK A01 T10481058  RH  093%=      5-min Rain = 0
KEA1 100938Z 26008KT M05/M06 A3034 RMK A01 T10481058  RH  093%=      5-min Rain = 0
KEA1 100939Z 26009KT M05/M06 A3034 RMK A01 T10491058  RH  093%=      5-min Rain = 0
KEA1 100940Z 26008KT M05/M06 A3034 RMK A01 T10491059  RH  093%=      5-min Rain = 0
KEA1 100941Z 26008KT M05/M06 A3034 RMK A01 T10491059  RH  093%=      5-min Rain = 0
KEA1 100942Z 26008KT M05/M06 A3034 RMK A01 T10501059  RH  093%=      5-min Rain = 0
KEA1 100943Z 26009KT M05/M06 A3034 RMK A01 T10491059  RH  093%=      5-min Rain = 0
KEA1 100944Z 26009KT M05/M06 A3034 RMK A01 T10501059  RH  093%=      5-min Rain = 0
KEA1 100945Z 26008KT M05/M06 A3034 RMK A01 T10501059  RH  093%=      5-min Rain = 0
KEA1 100946Z 26009KT M05/M06 A3034 RMK A01 T10501059  RH  093%=      5-min Rain = 0
KEA1 100947Z 26009KT M05/M06 A3034 RMK A01 T10501059  RH  093%=      5-min Rain = 0
KEA1 100948Z 26008KT M05/M06 A3034 RMK A01 T10501059  RH  093%=      5-min Rain = 0
KEA1 100949Z 26008KT M05/M06 A3034 RMK A01 T10501059  RH  093%=      5-min Rain = 0
KEA1 100950Z 26008KT M05/M06 A3034 RMK A01 T10501059  RH  093%=      5-min Rain = 0
KEA1 100951Z 26008KT M05/M06 A3034 RMK A01 T10491059  RH  093%=      5-min Rain = 0
KEA1 100952Z 26009KT M05/M06 A3034 RMK A01 T10501059  RH  093%=      5-min Rain = 0
KEA1 100953Z 26009KT M05/M06 A3034 RMK A01 T10491059  RH  093%=      5-min Rain = 0
KEA1 100954Z 26008KT M05/M06 A3034 RMK A01 T10501059  RH  093%=      5-min Rain = 0
KEA1 100955Z 27008KT M05/M06 A3034 RMK A01 T10501059  RH  093%=      5-min Rain = 0
KEA1 100956Z 27008KT M05/M06 A3034 RMK A01 T10491059  RH  093%=      5-min Rain = 0
KEA1 100957Z 27008KT M05/M06 A3034 RMK A01 T10501059  RH  093%=      5-min Rain = 0
KEA1 100958Z 27008KT M05/M06 A3034 RMK A01 T10501059  RH  093%=      5-min Rain = 0
KEA1 100959Z 27008KT M05/M06 A3034 RMK A01 T10501059  RH  093%=      5-min Rain = 0
KEA1 101000Z 27008KT M05/M06 A3034 RMK A01 T10501060  RH  093%=      5-min Rain = 0
KEA1 101001Z 27008KT M05/M06 A3034 RMK A01 T10501060  RH  093%=      5-min Rain = 0
KEA1 101002Z 27008KT M05/M06 A3034 RMK A01 T10511060  RH  093%=      5-min Rain = 0
KEA1 101003Z 27008KT M05/M06 A3034 RMK A01 T10501060  RH  093%=      5-min Rain = 0
KEA1 101004Z 27008KT M05/M06 A3034 RMK A01 T10501060  RH  093%=      5-min Rain = 0
KEA1 101005Z 27008KT M05/M06 A3034 RMK A01 T10501059  RH  093%=      5-min Rain = 0
KEA1 101006Z 27008KT M05/M06 A3034 RMK A01 T10501059  RH  093%=      5-min Rain = 0
KEA1 101007Z 27008KT M05/M06 A3034 RMK A01 T10501059  RH  093%=      5-min Rain = 0
KEA1 101008Z 27008KT M05/M06 A3034 RMK A01 T10501059  RH  093%=      5-min Rain = 0
KEA1 101009Z 27008KT M05/M06 A3034 RMK A01 T10491058  RH  093%=      5-min Rain = 0
KEA1 101010Z 27008KT M05/M06 A3034 RMK A01 T10501059  RH  093%=      5-min Rain = 0
KEA1 101011Z 27008KT M05/M06 A3034 RMK A01 T10491058  RH  093%=      5-min Rain = 0
KEA1 101012Z 27008KT M05/M06 A3034 RMK A01 T10491059  RH  093%=      5-min Rain = 0
KEA1 101013Z 27008KT M05/M06 A3034 RMK A01 T10491058  RH  093%=      5-min Rain = 0
KEA1 101014Z 27008KT M05/M06 A3034 RMK A01 T10491058  RH  093%=      5-min Rain = 0
KEA1 101015Z 26008KT M05/M06 A3034 RMK A01 T10491058  RH  093%=      5-min Rain = 0
KEA1 101016Z 26008KT M05/M06 A3034 RMK A01 T10491058  RH  093%=      5-min Rain = 0
KEA1 101017Z 26009KT M05/M06 A3034 RMK A01 T10491058  RH  093%=      5-min Rain = 0
KEA1 101018Z 26008KT M05/M06 A3034 RMK A01 T10491058  RH  093%=      5-min Rain = 0
KEA1 101019Z 26009KT M05/M06 A3034 RMK A01 T10481057  RH  094%=      5-min Rain = 0
KEA1 101020Z 26009KT M05/M06 A3034 RMK A01 T10481057  RH  094%=      5-min Rain = 0
KEA1 101021Z 26009KT M05/M06 A3034 RMK A01 T10471056  RH  094%=      5-min Rain = 0
KEA1 101022Z 26008KT M05/M06 A3034 RMK A01 T10471056  RH  093%=      5-min Rain = 0
KEA1 101023Z 26009KT M05/M06 A3034 RMK A01 T10471056  RH  093%=      5-min Rain = 0
KEA1 101024Z 26009KT M05/M06 A3034 RMK A01 T10471056  RH  093%=      5-min Rain = 0
KEA1 101025Z 26009KT M05/M06 A3034 RMK A01 T10471057  RH  093%=      5-min Rain = 0
KEA1 101026Z 26009KT M05/M06 A3034 RMK A01 T10471056  RH  093%=      5-min Rain = 0
KEA1 101027Z 26009KT M05/M06 A3034 RMK A01 T10471057  RH  093%=      5-min Rain = 0
KEA1 101028Z 26008KT M05/M06 A3034 RMK A01 T10471057  RH  093%=      5-min Rain = 0
KEA1 101029Z 26008KT M05/M06 A3034 RMK A01 T10471057  RH  093%=      5-min Rain = 0
KEA1 101030Z 26009KT M05/M06 A3034 RMK A01 T10471057  RH  093%=      5-min Rain = 0
KEA1 101031Z 26009KT M05/M06 A3034 RMK A01 T10471056  RH  093%=      5-min Rain = 0
KEA1 101032Z 26009KT M05/M06 A3034 RMK A01 T10471056  RH  093%=      5-min Rain = 0
KEA1 101033Z 26009KT M05/M06 A3034 RMK A01 T10471056  RH  093%=      5-min Rain = 0
KEA1 101034Z 26009KT M05/M06 A3034 RMK A01 T10471057  RH  093%=      5-min Rain = 0
KEA1 101035Z 26009KT M05/M06 A3034 RMK A01 T10471057  RH  093%=      5-min Rain = 0
KEA1 101036Z 26010KT M05/M06 A3034 RMK A01 T10481057  RH  093%=      5-min Rain = 0
KEA1 101037Z 26010KT M05/M06 A3034 RMK A01 T10481057  RH  093%=      5-min Rain = 0
KEA1 101038Z 26009KT M05/M06 A3034 RMK A01 T10471057  RH  093%=      5-min Rain = 0
KEA1 101039Z 26009KT M05/M06 A3034 RMK A01 T10481058  RH  093%=      5-min Rain = 0
KEA1 101040Z 26008KT M05/M06 A3034 RMK A01 T10491059  RH  093%=      5-min Rain = 0
KEA1 101041Z 26008KT M05/M06 A3034 RMK A01 T10491059  RH  093%=      5-min Rain = 0
KEA1 101042Z 26008KT M05/M06 A3034 RMK A01 T10491059  RH  093%=      5-min Rain = 0
KEA1 101043Z 26009KT M05/M06 A3033 RMK A01 T10501059  RH  093%=      5-min Rain = 0
KEA1 101044Z 26008KT M05/M06 A3033 RMK A01 T10491058  RH  093%=      5-min Rain = 0
KEA1 101045Z 26009KT M05/M06 A3033 RMK A01 T10491058  RH  093%=      5-min Rain = 0
KEA1 101046Z 26008KT M05/M06 A3033 RMK A01 T10491058  RH  093%=      5-min Rain = 0
KEA1 101047Z 26008KT M05/M06 A3033 RMK A01 T10491058  RH  094%=      5-min Rain = 0
KEA1 101048Z 26008KT M05/M06 A3033 RMK A01 T10491058  RH  094%=      5-min Rain = 0
KEA1 101049Z 26008KT M05/M06 A3033 RMK A01 T10491058  RH  094%=      5-min Rain = 0
KEA1 101050Z 26007KT M05/M06 A3033 RMK A01 T10501058  RH  094%=      5-min Rain = 0
KEA1 101051Z 27007KT M05/M06 A3033 RMK A01 T10501059  RH  094%=      5-min Rain = 0
KEA1 101052Z 26007KT M05/M06 A3033 RMK A01 T10511060  RH  093%=      5-min Rain = 0
KEA1 101053Z 26008KT M05/M06 A3033 RMK A01 T10511060  RH  094%=      5-min Rain = 0
KEA1 101054Z 26008KT M05/M06 A3033 RMK A01 T10511060  RH  094%=      5-min Rain = 0
KEA1 101055Z 26008KT M05/M06 A3033 RMK A01 T10511060  RH  094%=      5-min Rain = 0
KEA1 101056Z 26008KT M05/M06 A3033 RMK A01 T10511060  RH  094%=      5-min Rain = 0
KEA1 101057Z 26008KT M05/M06 A3034 RMK A01 T10511060  RH  094%=      5-min Rain = 0
KEA1 101058Z 26008KT M05/M06 A3034 RMK A01 T10511060  RH  094%=      5-min Rain = 0
KEA1 101059Z 26008KT M05/M06 A3034 RMK A01 T10511060  RH  094%=      5-min Rain = 0
KEA1 101100Z 26008KT M05/M06 A3034 RMK A01 T10511060  RH  094%=      5-min Rain = 0
KEA1 101101Z 26008KT M05/M06 A3034 RMK A01 T10511059  RH  094%=      5-min Rain = 0
KEA1 101102Z 26008KT M05/M06 A3034 RMK A01 T10521060  RH  094%=      5-min Rain = 0
KEA1 101103Z 26008KT M05/M06 A3034 RMK A01 T10511059  RH  094%=      5-min Rain = 0
KEA1 101104Z 26009KT M05/M06 A3034 RMK A01 T10511059  RH  094%=      5-min Rain = 0
KEA1 101105Z 26008KT M05/M06 A3034 RMK A01 T10501058  RH  094%=      5-min Rain = 0
KEA1 101106Z 26009KT M05/M06 A3034 RMK A01 T10511058  RH  094%=      5-min Rain = 0
KEA1 101107Z 26008KT M05/M06 A3034 RMK A01 T10501057  RH  095%=      5-min Rain = 0
KEA1 101108Z 26008KT M05/M06 A3034 RMK A01 T10501057  RH  095%=      5-min Rain = 0
KEA1 101109Z 26008KT M05/M06 A3034 RMK A01 T10491057  RH  095%=      5-min Rain = 0
KEA1 101110Z 26008KT M05/M06 A3034 RMK A01 T10491057  RH  095%=      5-min Rain = 0
KEA1 101111Z 26008KT M05/M06 A3034 RMK A01 T10491056  RH  095%=      5-min Rain = 0
KEA1 101112Z 26008KT M05/M06 A3034 RMK A01 T10491056  RH  095%=      5-min Rain = 0
KEA1 101113Z 26008KT M05/M06 A3034 RMK A01 T10491056  RH  095%=      5-min Rain = 0
KEA1 101114Z 25008KT M05/M06 A3034 RMK A01 T10491057  RH  095%=      5-min Rain = 0
KEA1 101115Z 26008KT M05/M06 A3034 RMK A01 T10491056  RH  095%=      5-min Rain = 0
KEA1 101116Z 26008KT M05/M06 A3034 RMK A01 T10481055  RH  095%=      5-min Rain = 0
KEA1 101117Z 26007KT M05/M06 A3034 RMK A01 T10491056  RH  095%=      5-min Rain = 0
KEA1 101118Z 26007KT M05/M06 A3034 RMK A01 T10481055  RH  095%=      5-min Rain = 0
KEA1 101119Z 26008KT M05/M06 A3034 RMK A01 T10481055  RH  095%=      5-min Rain = 0
KEA1 101120Z 26008KT M05/M06 A3034 RMK A01 T10481055  RH  095%=      5-min Rain = 0
KEA1 101121Z 26008KT M05/M06 A3034 RMK A01 T10481055  RH  095%=      5-min Rain = 0
KEA1 101122Z 26008KT M05/M05 A3034 RMK A01 T10481054  RH  095%=      5-min Rain = 0
KEA1 101123Z 26008KT M05/M06 A3034 RMK A01 T10481055  RH  095%=      5-min Rain = 0
KEA1 101124Z 26008KT M05/M05 A3034 RMK A01 T10471054  RH  095%=      5-min Rain = 0
KEA1 101125Z 26008KT M05/M05 A3034 RMK A01 T10481054  RH  095%=      5-min Rain = 0
KEA1 101126Z 26008KT M05/M05 A3034 RMK A01 T10471054  RH  095%=      5-min Rain = 0
KEA1 101127Z 26008KT M05/M05 A3034 RMK A01 T10481054  RH  095%=      5-min Rain = 0
KEA1 101128Z 26008KT M05/M05 A3034 RMK A01 T10481054  RH  095%=      5-min Rain = 0
KEA1 101129Z 26008KT M05/M05 A3033 RMK A01 T10481054  RH  095%=      5-min Rain = 0
KEA1 101130Z 26009KT M05/M05 A3033 RMK A01 T10481054  RH  095%=      5-min Rain = 0
KEA1 101131Z 26008KT M05/M05 A3033 RMK A01 T10481054  RH  095%=      5-min Rain = 0
KEA1 101132Z 26008KT M05/M05 A3033 RMK A01 T10471054  RH  095%=      5-min Rain = 0
KEA1 101133Z 26009KT M05/M05 A3033 RMK A01 T10461052  RH  095%=      5-min Rain = 0
KEA1 101134Z 26009KT M05/M05 A3033 RMK A01 T10451052  RH  096%=      5-min Rain = 0
KEA1 101135Z 26009KT M04/M05 A3033 RMK A01 T10441050  RH  096%=      5-min Rain = 0
KEA1 101136Z 26008KT M04/M05 A3033 RMK A01 T10441050  RH  096%=      5-min Rain = 0
KEA1 101137Z 26008KT M04/M05 A3033 RMK A01 T10441050  RH  096%=      5-min Rain = 0
KEA1 101138Z 26009KT M04/M05 A3033 RMK A01 T10431049  RH  096%=      5-min Rain = 0
KEA1 101139Z 26009KT M04/M05 A3033 RMK A01 T10431049  RH  096%=      5-min Rain = 0
KEA1 101140Z 26008KT M04/M05 A3033 RMK A01 T10421048  RH  096%=      5-min Rain = 0
KEA1 101141Z 26009KT M04/M05 A3033 RMK A01 T10421048  RH  096%=      5-min Rain = 0
KEA1 101142Z 26008KT M04/M05 A3033 RMK A01 T10411047  RH  096%=      5-min Rain = 0
KEA1 101143Z 26008KT M04/M05 A3033 RMK A01 T10411048  RH  095%=      5-min Rain = 0
KEA1 101144Z 26009KT M04/M05 A3033 RMK A01 T10411048  RH  095%=      5-min Rain = 0
KEA1 101145Z 26009KT M04/M05 A3033 RMK A01 T10411048  RH  095%=      5-min Rain = 0
KEA1 101146Z 26009KT M04/M05 A3033 RMK A01 T10411048  RH  095%=      5-min Rain = 0
KEA1 101147Z 26009KT M04/M05 A3033 RMK A01 T10411048  RH  095%=      5-min Rain = 0
KEA1 101148Z 26009KT M04/M05 A3033 RMK A01 T10411048  RH  095%=      5-min Rain = 0
KEA1 101149Z 26009KT M04/M05 A3033 RMK A01 T10411048  RH  095%=      5-min Rain = 0
KEA1 101150Z 26009KT M04/M05 A3033 RMK A01 T10411048  RH  095%=      5-min Rain = 0
KEA1 101151Z 26009KT M04/M05 A3033 RMK A01 T10411048  RH  095%=      5-min Rain = 0
KEA1 101152Z 26009KT M04/M05 A3033 RMK A01 T10411048  RH  095%=      5-min Rain = 0
KEA1 101153Z 26008KT M04/M05 A3033 RMK A01 T10411049  RH  095%=      5-min Rain = 0
KEA1 101154Z 26009KT M04/M05 A3033 RMK A01 T10421049  RH  095%=      5-min Rain = 0
KEA1 101155Z 26009KT M04/M05 A3033 RMK A01 T10421050  RH  095%=      5-min Rain = 0
KEA1 101156Z 25009KT M04/M05 A3033 RMK A01 T10421050  RH  095%=      5-min Rain = 0
KEA1 101157Z 26009KT M04/M05 A3033 RMK A01 T10421050  RH  095%=      5-min Rain = 0
KEA1 101158Z 26009KT M04/M05 A3034 RMK A01 T10421050  RH  095%=      5-min Rain = 0
KEA1 101159Z 26009KT M04/M05 A3034 RMK A01 T10421050  RH  095%=      5-min Rain = 0
KEA1 101200Z 26009KT M04/M05 A3034 RMK A01 T10421050  RH  094%=      5-min Rain = 0
KEA1 101201Z 26009KT M04/M05 A3034 RMK A01 T10431050  RH  094%=      5-min Rain = 0
KEA1 101202Z 26008KT M04/M05 A3034 RMK A01 T10431050  RH  094%=      5-min Rain = 0
KEA1 101203Z 26008KT M04/M05 A3034 RMK A01 T10421050  RH  094%=      5-min Rain = 0
KEA1 101204Z 26008KT M04/M05 A3034 RMK A01 T10431050  RH  094%=      5-min Rain = 0
KEA1 101205Z 26008KT M04/M05 A3034 RMK A01 T10431051  RH  094%=      5-min Rain = 0
KEA1 101206Z 26008KT M04/M05 A3034 RMK A01 T10431051  RH  094%=      5-min Rain = 0
KEA1 101207Z 26008KT M04/M05 A3034 RMK A01 T10431050  RH  094%=      5-min Rain = 0
KEA1 101208Z 26008KT M04/M05 A3034 RMK A01 T10431051  RH  094%=      5-min Rain = 0
KEA1 101209Z 26008KT M04/M05 A3034 RMK A01 T10431052  RH  094%=      5-min Rain = 0
KEA1 101210Z 26008KT M04/M05 A3034 RMK A01 T10441052  RH  094%=      5-min Rain = 0
KEA1 101211Z 26007KT M04/M05 A3034 RMK A01 T10441053  RH  094%=      5-min Rain = 0
KEA1 101212Z 26008KT M05/M05 A3034 RMK A01 T10451054  RH  094%=      5-min Rain = 0
KEA1 101213Z 26007KT M05/M06 A3034 RMK A01 T10461055  RH  094%=      5-min Rain = 0
KEA1 101214Z 26007KT M05/M06 A3034 RMK A01 T10471056  RH  093%=      5-min Rain = 0
KEA1 101215Z 26007KT M05/M06 A3034 RMK A01 T10481057  RH  093%=      5-min Rain = 0
KEA1 101216Z 26007KT M05/M06 A3034 RMK A01 T10481057  RH  093%=      5-min Rain = 0
KEA1 101217Z 26007KT M05/M06 A3034 RMK A01 T10491058  RH  093%=      5-min Rain = 0
KEA1 101218Z 26007KT M05/M06 A3034 RMK A01 T10491058  RH  094%=      5-min Rain = 0
KEA1 101219Z 27007KT M05/M06 A3034 RMK A01 T10491058  RH  094%=      5-min Rain = 0
KEA1 101220Z 27007KT M05/M06 A3034 RMK A01 T10501058  RH  094%=      5-min Rain = 0
KEA1 101221Z 27007KT M05/M06 A3034 RMK A01 T10501059  RH  094%=      5-min Rain = 0
KEA1 101222Z 27007KT M05/M06 A3034 RMK A01 T10511060  RH  094%=      5-min Rain = 0
KEA1 101223Z 27007KT M05/M06 A3034 RMK A01 T10511060  RH  093%=      5-min Rain = 0
KEA1 101224Z 27007KT M05/M06 A3034 RMK A01 T10521062  RH  093%=      5-min Rain = 0
KEA1 101225Z 27007KT M05/M06 A3034 RMK A01 T10531063  RH  093%=      5-min Rain = 0
KEA1 101226Z 27007KT M05/M06 A3034 RMK A01 T10541064  RH  093%=      5-min Rain = 0
KEA1 101227Z 27007KT M06/M07 A3034 RMK A01 T10551065  RH  093%=      5-min Rain = 0
KEA1 101228Z 27007KT M06/M07 A3034 RMK A01 T10561066  RH  093%=      5-min Rain = 0
KEA1 101229Z 27007KT M06/M07 A3034 RMK A01 T10571067  RH  093%=      5-min Rain = 0
KEA1 101230Z 27007KT M06/M07 A3034 RMK A01 T10571067  RH  093%=      5-min Rain = 0
KEA1 101231Z 27007KT M06/M07 A3034 RMK A01 T10571066  RH  093%=      5-min Rain = 0
KEA1 101232Z 27008KT M06/M07 A3034 RMK A01 T10571067  RH  093%=      5-min Rain = 0
KEA1 101233Z 27008KT M06/M07 A3034 RMK A01 T10571066  RH  093%=      5-min Rain = 0
KEA1 101234Z 27008KT M06/M07 A3034 RMK A01 T10571066  RH  093%=      5-min Rain = 0
KEA1 101235Z 27008KT M06/M07 A3034 RMK A01 T10581067  RH  093%=      5-min Rain = 0
KEA1 101236Z 27008KT M06/M07 A3034 RMK A01 T10571066  RH  094%=      5-min Rain = 0
KEA1 101237Z 26008KT M06/M07 A3034 RMK A01 T10571065  RH  094%=      5-min Rain = 0
KEA1 101238Z 26008KT M06/M07 A3034 RMK A01 T10561065  RH  094%=      5-min Rain = 0
KEA1 101239Z 26008KT M06/M06 A3034 RMK A01 T10561064  RH  094%=      5-min Rain = 0
KEA1 101240Z 26008KT M06/M06 A3034 RMK A01 T10551064  RH  094%=      5-min Rain = 0
KEA1 101241Z 26008KT M06/M06 A3034 RMK A01 T10551064  RH  094%=      5-min Rain = 0
KEA1 101242Z 26008KT M06/M06 A3034 RMK A01 T10551064  RH  094%=      5-min Rain = 0
KEA1 101243Z 26008KT M06/M06 A3034 RMK A01 T10551063  RH  094%=      5-min Rain = 0
KEA1 101244Z 26009KT M06/M06 A3034 RMK A01 T10551064  RH  094%=      5-min Rain = 0
KEA1 101245Z 26008KT M05/M06 A3034 RMK A01 T10541062  RH  094%=      5-min Rain = 0
KEA1 101246Z 26008KT M05/M06 A3034 RMK A01 T10541062  RH  094%=      5-min Rain = 0
KEA1 101247Z 26008KT M05/M06 A3035 RMK A01 T10531061  RH  094%=      5-min Rain = 0
KEA1 101248Z 26008KT M05/M06 A3035 RMK A01 T10531061  RH  094%=      5-min Rain = 0
KEA1 101249Z 26008KT M05/M06 A3035 RMK A01 T10531061  RH  094%=      5-min Rain = 0
KEA1 101250Z 26008KT M05/M06 A3035 RMK A01 T10531061  RH  094%=      5-min Rain = 0
KEA1 101251Z 26008KT M05/M06 A3035 RMK A01 T10531061  RH  094%=      5-min Rain = 0
KEA1 101252Z 26008KT M05/M06 A3035 RMK A01 T10521061  RH  094%=      5-min Rain = 0
KEA1 101253Z 26008KT M05/M06 A3035 RMK A01 T10531061  RH  094%=      5-min Rain = 0
KEA1 101254Z 26008KT M05/M06 A3035 RMK A01 T10531061  RH  094%=      5-min Rain = 0
KEA1 101255Z 26008KT M05/M06 A3035 RMK A01 T10531062  RH  094%=      5-min Rain = 0
KEA1 101256Z 26008KT M05/M06 A3035 RMK A01 T10541063  RH  094%=      5-min Rain = 0
KEA1 101257Z 26008KT M05/M06 A3035 RMK A01 T10541062  RH  094%=      5-min Rain = 0
KEA1 101258Z 26008KT M05/M06 A3035 RMK A01 T10531062  RH  094%=      5-min Rain = 0
KEA1 101259Z 26008KT M05/M06 A3035 RMK A01 T10541062  RH  094%=      5-min Rain = 0
KEA1 101300Z 26008KT M05/M06 A3035 RMK A01 T10541062  RH  094%=      5-min Rain = 0
KEA1 101301Z 26008KT M05/M06 A3035 RMK A01 T10541062  RH  094%=      5-min Rain = 0
KEA1 101302Z 26008KT M05/M06 A3035 RMK A01 T10531061  RH  094%=      5-min Rain = 0
KEA1 101303Z 26008KT M05/M06 A3035 RMK A01 T10531061  RH  094%=      5-min Rain = 0
KEA1 101304Z 26008KT M05/M06 A3035 RMK A01 T10531061  RH  094%=      5-min Rain = 0
KEA1 101305Z 26008KT M05/M06 A3035 RMK A01 T10521060  RH  094%=      5-min Rain = 0
KEA1 101306Z 26008KT M05/M06 A3035 RMK A01 T10521060  RH  094%=      5-min Rain = 0
KEA1 101307Z 26008KT M05/M06 A3035 RMK A01 T10521060  RH  094%=      5-min Rain = 0
KEA1 101308Z 26008KT M05/M06 A3035 RMK A01 T10511059  RH  094%=      5-min Rain = 0
KEA1 101309Z 26008KT M05/M06 A3035 RMK A01 T10501058  RH  094%=      5-min Rain = 0
KEA1 101310Z 26009KT M05/M06 A3035 RMK A01 T10501057  RH  095%=      5-min Rain = 0
KEA1 101311Z 26008KT M05/M06 A3035 RMK A01 T10491056  RH  095%=      5-min Rain = 0
KEA1 101312Z 26008KT M05/M06 A3035 RMK A01 T10481055  RH  095%=      5-min Rain = 0
KEA1 101313Z 26008KT M05/M05 A3035 RMK A01 T10471054  RH  095%=      5-min Rain = 0
KEA1 101314Z 26008KT M05/M05 A3035 RMK A01 T10461053  RH  095%=      5-min Rain = 0
KEA1 101315Z 25008KT M05/M05 A3035 RMK A01 T10451052  RH  095%=      5-min Rain = 0
KEA1 101316Z 25008KT M04/M05 A3035 RMK A01 T10441051  RH  095%=      5-min Rain = 0
KEA1 101317Z 25009KT M04/M05 A3035 RMK A01 T10441051  RH  095%=      5-min Rain = 0
KEA1 101318Z 25008KT M04/M05 A3035 RMK A01 T10431050  RH  095%=      5-min Rain = 0
KEA1 101319Z 25008KT M04/M05 A3035 RMK A01 T10421049  RH  095%=      5-min Rain = 0
KEA1 101320Z 25009KT M04/M05 A3035 RMK A01 T10421049  RH  095%=      5-min Rain = 0
KEA1 101321Z 25009KT M04/M05 A3035 RMK A01 T10411049  RH  095%=      5-min Rain = 0
KEA1 101322Z 25010KT M04/M05 A3035 RMK A01 T10411048  RH  095%=      5-min Rain = 0
KEA1 101323Z 25010KT M04/M05 A3035 RMK A01 T10401048  RH  095%=      5-min Rain = 0
KEA1 101324Z 25010KT M04/M05 A3035 RMK A01 T10391047  RH  095%=      5-min Rain = 0
KEA1 101325Z 25010KT M04/M05 A3035 RMK A01 T10391046  RH  095%=      5-min Rain = 0
KEA1 101326Z 25010KT M04/M05 A3035 RMK A01 T10381046  RH  094%=      5-min Rain = 0
KEA1 101327Z 25010KT M04/M05 A3035 RMK A01 T10381046  RH  094%=      5-min Rain = 0
KEA1 101328Z 25010KT M04/M05 A3035 RMK A01 T10371045  RH  094%=      5-min Rain = 0
KEA1 101329Z 25010KT M04/M04 A3035 RMK A01 T10361044  RH  094%=      5-min Rain = 0
KEA1 101330Z 25010KT M04/M05 A3035 RMK A01 T10361045  RH  093%=      5-min Rain = 0
KEA1 101331Z 25010KT M04/M05 A3035 RMK A01 T10361046  RH  093%=      5-min Rain = 0
KEA1 101332Z 25011KT M04/M05 A3036 RMK A01 T10361046  RH  093%=      5-min Rain = 0
KEA1 101333Z 25011KT M04/M05 A3036 RMK A01 T10361047  RH  092%=      5-min Rain = 0
KEA1 101334Z 25010KT M04/M05 A3036 RMK A01 T10361047  RH  092%=      5-min Rain = 0
KEA1 101335Z 25010KT M04/M05 A3036 RMK A01 T10361048  RH  092%=      5-min Rain = 0
KEA1 101336Z 25009KT M04/M05 A3036 RMK A01 T10371048  RH  092%=      5-min Rain = 0
KEA1 101337Z 25010KT M04/M05 A3036 RMK A01 T10371049  RH  092%=      5-min Rain = 0
KEA1 101338Z 25009KT M04/M05 A3036 RMK A01 T10381049  RH  092%=      5-min Rain = 0
KEA1 101339Z 25009KT M04/M05 A3036 RMK A01 T10381049  RH  092%=      5-min Rain = 0
KEA1 101340Z 26009KT M04/M05 A3036 RMK A01 T10381050  RH  092%=      5-min Rain = 0
KEA1 101341Z 26009KT M04/M05 A3036 RMK A01 T10381050  RH  092%=      5-min Rain = 0
KEA1 101342Z 26009KT M04/M05 A3036 RMK A01 T10391051  RH  092%=      5-min Rain = 0
KEA1 101343Z 26009KT M04/M05 A3036 RMK A01 T10401052  RH  091%=      5-min Rain = 0
KEA1 101344Z 26009KT M04/M05 A3036 RMK A01 T10401052  RH  091%=      5-min Rain = 0
KEA1 101345Z 26008KT M04/M05 A3036 RMK A01 T10411052  RH  091%=      5-min Rain = 0
KEA1 101346Z 26009KT M04/M05 A3036 RMK A01 T10411053  RH  091%=      5-min Rain = 0
KEA1 101347Z 26008KT M04/M05 A3036 RMK A01 T10421054  RH  091%=      5-min Rain = 0
KEA1 101348Z 26009KT M04/M05 A3036 RMK A01 T10421053  RH  092%=      5-min Rain = 0
KEA1 101349Z 26008KT M04/M05 A3036 RMK A01 T10421053  RH  092%=      5-min Rain = 0
KEA1 101350Z 26008KT M04/M05 A3036 RMK A01 T10421054  RH  092%=      5-min Rain = 0
KEA1 101351Z 26009KT M04/M05 A3036 RMK A01 T10431054  RH  092%=      5-min Rain = 0
KEA1 101352Z 27008KT M04/M05 A3036 RMK A01 T10431054  RH  092%=      5-min Rain = 0
KEA1 101353Z 27008KT M04/M05 A3036 RMK A01 T10421053  RH  092%=      5-min Rain = 0
KEA1 101354Z 27008KT M04/M05 A3036 RMK A01 T10421053  RH  092%=      5-min Rain = 0
KEA1 101355Z 27008KT M04/M05 A3036 RMK A01 T10421053  RH  092%=      5-min Rain = 0
KEA1 101356Z 27008KT M04/M05 A3036 RMK A01 T10421053  RH  092%=      5-min Rain = 0
KEA1 101357Z 27008KT M04/M05 A3036 RMK A01 T10411052  RH  092%=      5-min Rain = 0
KEA1 101358Z 27009KT M04/M05 A3036 RMK A01 T10411053  RH  092%=      5-min Rain = 0
KEA1 101359Z 27008KT M04/M05 A3036 RMK A01 T10411052  RH  092%=      5-min Rain = 0
KEA1 101400Z 26008KT M04/M05 A3036 RMK A01 T10401052  RH  092%=      5-min Rain = 0
KEA1 101401Z 26009KT M04/M05 A3036 RMK A01 T10401051  RH  092%=      5-min Rain = 0
KEA1 101402Z 26009KT M04/M05 A3036 RMK A01 T10391050  RH  092%=      5-min Rain = 0
KEA1 101403Z 26009KT M04/M05 A3036 RMK A01 T10381049  RH  092%=      5-min Rain = 0
KEA1 101404Z 26009KT M04/M05 A3036 RMK A01 T10381049  RH  092%=      5-min Rain = 0
KEA1 101405Z 26008KT M04/M05 A3036 RMK A01 T10371049  RH  092%=      5-min Rain = 0
KEA1 101406Z 26009KT M04/M05 A3036 RMK A01 T10371048  RH  092%=      5-min Rain = 0
KEA1 101407Z 26009KT M04/M05 A3036 RMK A01 T10371049  RH  092%=      5-min Rain = 0
KEA1 101408Z 26009KT M04/M05 A3036 RMK A01 T10361048  RH  091%=      5-min Rain = 0
KEA1 101409Z 26009KT M04/M05 A3036 RMK A01 T10361049  RH  091%=      5-min Rain = 0
KEA1 101410Z 26010KT M04/M05 A3036 RMK A01 T10361049  RH  091%=      5-min Rain = 0
KEA1 101411Z 26009KT M04/M05 A3036 RMK A01 T10361049  RH  091%=      5-min Rain = 0
KEA1 101412Z 25010KT M04/M05 A3036 RMK A01 T10361049  RH  091%=      5-min Rain = 0
KEA1 101413Z 26010KT M04/M05 A3036 RMK A01 T10351048  RH  091%=      5-min Rain = 0
KEA1 101414Z 26010KT M04/M05 A3036 RMK A01 T10361049  RH  091%=      5-min Rain = 0
KEA1 101415Z 26009KT M04/M05 A3036 RMK A01 T10361049  RH  090%=      5-min Rain = 0
KEA1 101416Z 26010KT M04/M05 A3036 RMK A01 T10361049  RH  090%=      5-min Rain = 0
KEA1 101417Z 25009KT M04/M05 A3036 RMK A01 T10351049  RH  090%=      5-min Rain = 0
KEA1 101418Z 26010KT M04/M05 A3036 RMK A01 T10361049  RH  091%=      5-min Rain = 0
KEA1 101419Z 25010KT M04/M05 A3036 RMK A01 T10361049  RH  091%=      5-min Rain = 0
KEA1 101420Z 25010KT M04/M05 A3036 RMK A01 T10351049  RH  090%=      5-min Rain = 0
KEA1 101421Z 25010KT M04/M05 A3035 RMK A01 T10351049  RH  090%=      5-min Rain = 0
KEA1 101422Z 25010KT M04/M05 A3036 RMK A01 T10351048  RH  090%=      5-min Rain = 0
KEA1 101423Z 25010KT M03/M05 A3035 RMK A01 T10341048  RH  090%=      5-min Rain = 0
KEA1 101424Z 26010KT M03/M05 A3035 RMK A01 T10341048  RH  090%=      5-min Rain = 0
KEA1 101425Z 26010KT M03/M05 A3036 RMK A01 T10341048  RH  090%=      5-min Rain = 0
KEA1 101426Z 25010KT M03/M05 A3036 RMK A01 T10331047  RH  090%=      5-min Rain = 0
KEA1 101427Z 25011KT M03/M05 A3035 RMK A01 T10331047  RH  090%=      5-min Rain = 0
KEA1 101428Z 25010KT M03/M05 A3036 RMK A01 T10321047  RH  090%=      5-min Rain = 0
KEA1 101429Z 25011KT M03/M05 A3036 RMK A01 T10321046  RH  090%=      5-min Rain = 0
KEA1 101430Z 25011KT M03/M05 A3036 RMK A01 T10321046  RH  090%=      5-min Rain = 0
KEA1 101431Z 25010KT M03/M05 A3036 RMK A01 T10311046  RH  090%=      5-min Rain = 0
KEA1 101432Z 25011KT M03/M05 A3036 RMK A01 T10311045  RH  090%=      5-min Rain = 0
KEA1 101433Z 25011KT M03/M05 A3036 RMK A01 T10301045  RH  090%=      5-min Rain = 0
KEA1 101434Z 25011KT M03/M04 A3036 RMK A01 T10301044  RH  090%=      5-min Rain = 0
KEA1 101435Z 25010KT M03/M04 A3036 RMK A01 T10291043  RH  090%=      5-min Rain = 0
KEA1 101436Z 25010KT M03/M04 A3036 RMK A01 T10291043  RH  090%=      5-min Rain = 0
KEA1 101437Z 25011KT M03/M04 A3036 RMK A01 T10281043  RH  090%=      5-min Rain = 0
KEA1 101438Z 25010KT M03/M04 A3036 RMK A01 T10281042  RH  090%=      5-min Rain = 0
KEA1 101439Z 25010KT M03/M04 A3036 RMK A01 T10271042  RH  090%=      5-min Rain = 0
KEA1 101440Z 25011KT M03/M04 A3036 RMK A01 T10261041  RH  090%=      5-min Rain = 0
KEA1 101441Z 25011KT M03/M04 A3036 RMK A01 T10261041  RH  090%=      5-min Rain = 0
KEA1 101442Z 25010KT M03/M04 A3036 RMK A01 T10261041  RH  090%=      5-min Rain = 0
KEA1 101443Z 25012KT M03/M04 A3036 RMK A01 T10251040  RH  090%=      5-min Rain = 0
KEA1 101444Z 25011KT M03/M04 A3036 RMK A01 T10251040  RH  089%=      5-min Rain = 0
KEA1 101445Z 25012KT M03/M04 A3036 RMK A01 T10251040  RH  089%=      5-min Rain = 0
KEA1 101446Z 26011KT M02/M04 A3036 RMK A01 T10241039  RH  089%=      5-min Rain = 0
KEA1 101447Z 26011KT M02/M04 A3036 RMK A01 T10231039  RH  089%=      5-min Rain = 0
KEA1 101448Z 26010KT M02/M04 A3036 RMK A01 T10231038  RH  089%=      5-min Rain = 0
KEA1 101449Z 26009KT M02/M04 A3036 RMK A01 T10221038  RH  089%=      5-min Rain = 0
KEA1 101450Z 26010KT M02/M04 A3036 RMK A01 T10211036  RH  089%=      5-min Rain = 0
KEA1 101451Z 26009KT M02/M04 A3036 RMK A01 T10211036  RH  089%=      5-min Rain = 0
KEA1 101452Z 27009KT M02/M04 A3036 RMK A01 T10201035  RH  090%=      5-min Rain = 0
KEA1 101453Z 26010KT M02/M03 A3036 RMK A01 T10191034  RH  089%=      5-min Rain = 0
KEA1 101454Z 26009KT M02/M03 A3036 RMK A01 T10191034  RH  089%=      5-min Rain = 0
KEA1 101455Z 26009KT M02/M03 A3036 RMK A01 T10181034  RH  089%=      5-min Rain = 0
KEA1 101456Z 26010KT M02/M03 A3036 RMK A01 T10171033  RH  089%=      5-min Rain = 0
KEA1 101457Z 26010KT M02/M03 A3036 RMK A01 T10171034  RH  089%=      5-min Rain = 0
KEA1 101458Z 26009KT M02/M03 A3036 RMK A01 T10171034  RH  088%=      5-min Rain = 0
KEA1 101459Z 26008KT M02/M03 A3036 RMK A01 T10171034  RH  088%=      5-min Rain = 0
KEA1 101500Z 27008KT M02/M03 A3036 RMK A01 T10171033  RH  089%=      5-min Rain = 0
KEA1 101501Z 27007KT M02/M03 A3037 RMK A01 T10151030  RH  089%=      5-min Rain = 0
KEA1 101502Z 27008KT M01/M03 A3037 RMK A01 T10141029  RH  090%=      5-min Rain = 0
KEA1 101503Z 27008KT M01/M03 A3037 RMK A01 T10141030  RH  089%=      5-min Rain = 0
KEA1 101504Z 27008KT M01/M03 A3037 RMK A01 T10141031  RH  089%=      5-min Rain = 0
KEA1 101505Z 27009KT M02/M03 A3037 RMK A01 T10151031  RH  088%=      5-min Rain = 0
KEA1 101506Z 27009KT M01/M03 A3037 RMK A01 T10141031  RH  088%=      5-min Rain = 0
KEA1 101507Z 27009KT M02/M03 A3037 RMK A01 T10151031  RH  089%=      5-min Rain = 0
KEA1 101508Z 27008KT M01/M03 A3037 RMK A01 T10141030  RH  089%=      5-min Rain = 0
KEA1 101509Z 27007KT M01/M03 A3037 RMK A01 T10131029  RH  089%=      5-min Rain = 0
KEA1 101510Z 27010KT M01/M03 A3037 RMK A01 T10131028  RH  089%=      5-min Rain = 0
KEA1 101511Z 26009KT M01/M03 A3037 RMK A01 T10131030  RH  088%=      5-min Rain = 0
KEA1 101512Z 27009KT M01/M03 A3037 RMK A01 T10131030  RH  088%=      5-min Rain = 0
KEA1 101513Z 26009KT M01/M03 A3037 RMK A01 T10131030  RH  088%=      5-min Rain = 0
KEA1 101514Z 27007KT M01/M03 A3037 RMK A01 T10121029  RH  089%=      5-min Rain = 0
KEA1 101515Z 26009KT M01/M03 A3037 RMK A01 T10111027  RH  089%=      5-min Rain = 0
KEA1 101516Z 27008KT M01/M03 A3037 RMK A01 T10101026  RH  089%=      5-min Rain = 0
KEA1 101517Z 26008KT M01/M03 A3037 RMK A01 T10101027  RH  089%=      5-min Rain = 0
KEA1 101518Z 27008KT M01/M03 A3037 RMK A01 T10101026  RH  089%=      5-min Rain = 0
KEA1 101519Z 27008KT M01/M03 A3037 RMK A01 T10091025  RH  089%=      5-min Rain = 0
KEA1 101520Z 27009KT M01/M02 A3038 RMK A01 T10081024  RH  089%=      5-min Rain = 0
KEA1 101521Z 27008KT M01/M02 A3037 RMK A01 T10071023  RH  089%=      5-min Rain = 0
KEA1 101522Z 26009KT M01/M02 A3038 RMK A01 T10071023  RH  089%=      5-min Rain = 0
KEA1 101523Z 27009KT M01/M02 A3038 RMK A01 T10061023  RH  089%=      5-min Rain = 0
KEA1 101524Z 27007KT M01/M02 A3038 RMK A01 T10061024  RH  088%=      5-min Rain = 0
KEA1 101525Z 27007KT M01/M02 A3038 RMK A01 T10051022  RH  089%=      5-min Rain = 0
KEA1 101526Z 27010KT M00/M02 A3038 RMK A01 T10041021  RH  089%=      5-min Rain = 0
KEA1 101527Z 27009KT M01/M02 A3038 RMK A01 T10051023  RH  087%=      5-min Rain = 0
KEA1 101528Z 27009KT M00/M02 A3038 RMK A01 T10041022  RH  088%=      5-min Rain = 0
KEA1 101529Z 26009KT M00/M02 A3038 RMK A01 T10041021  RH  088%=      5-min Rain = 0
KEA1 101530Z 27010KT M00/M02 A3038 RMK A01 T10031021  RH  088%=      5-min Rain = 0
KEA1 101531Z 27008KT M00/M02 A3038 RMK A01 T10021021  RH  088%=      5-min Rain = 0
KEA1 101532Z 27008KT M00/M02 A3038 RMK A01 T10021020  RH  087%=      5-min Rain = 0
KEA1 101533Z 27009KT M00/M02 A3038 RMK A01 T10011020  RH  087%=      5-min Rain = 0
KEA1 101534Z 27009KT M00/M02 A3038 RMK A01 T10011021  RH  087%=      5-min Rain = 0
KEA1 101535Z 27007KT M00/M02 A3038 RMK A01 T10011019  RH  087%=      5-min Rain = 0
KEA1 101536Z 27009KT 00/02 A3038 RMK A01 T00000-18  RH  087%=      5-min Rain = 0
KEA1 101537Z 27008KT 00/M02 A3038 RMK A01 T00011018  RH  087%=      5-min Rain = 0
KEA1 101538Z 27010KT 00/M02 A3038 RMK A01 T00021017  RH  087%=      5-min Rain = 0.01
KEA1 101539Z 27011KT 00/M02 A3038 RMK A01 T00021019  RH  086%=      5-min Rain = 0
KEA1 101540Z 27011KT 00/M02 A3038 RMK A01 T00021020  RH  085%=      5-min Rain = 0
KEA1 101541Z 27010KT 00/M02 A3038 RMK A01 T00011020  RH  085%=      5-min Rain = 0
KEA1 101542Z 27010KT 00/M02 A3038 RMK A01 T00021018  RH  086%=      5-min Rain = 0
KEA1 101543Z 27008KT 00/M02 A3037 RMK A01 T00031018  RH  086%=      5-min Rain = 0
KEA1 101544Z 27009KT 01/M02 A3037 RMK A01 T00051015  RH  087%=      5-min Rain = 0
KEA1 101545Z 27010KT 01/M02 A3037 RMK A01 T00051016  RH  085%=      5-min Rain = 0
KEA1 101546Z 26010KT 01/M02 A3037 RMK A01 T00051019  RH  084%=      5-min Rain = 0
KEA1 101547Z 26010KT 01/M02 A3037 RMK A01 T00051019  RH  084%=      5-min Rain = 0
KEA1 101548Z 26010KT 01/M02 A3037 RMK A01 T00051019  RH  084%=      5-min Rain = 0
KEA1 101549Z 26010KT 01/M02 A3037 RMK A01 T00051019  RH  084%=      5-min Rain = 0
KEA1 101550Z 26009KT 01/M02 A3037 RMK A01 T00061018  RH  085%=      5-min Rain = 0
KEA1 101551Z 26010KT 01/M02 A3037 RMK A01 T00071015  RH  085%=      5-min Rain = 0
KEA1 101552Z 26009KT 01/M02 A3037 RMK A01 T00081015  RH  085%=      5-min Rain = 0
KEA1 101553Z 26008KT 01/M01 A3037 RMK A01 T00091013  RH  085%=      5-min Rain = 0
KEA1 101554Z 26009KT 01/M01 A3037 RMK A01 T00101012  RH  085%=      5-min Rain = 0
KEA1 101555Z 26010KT 01/M01 A3037 RMK A01 T00101013  RH  084%=      5-min Rain = 0
KEA1 101556Z 26009KT 01/M01 A3037 RMK A01 T00101013  RH  084%=      5-min Rain = 0
KEA1 101557Z 25008KT 01/M01 A3037 RMK A01 T00121011  RH  085%=      5-min Rain = 0
KEA1 101558Z 26008KT 01/M01 A3037 RMK A01 T00131010  RH  085%=      5-min Rain = 0
KEA1 101559Z 26009KT 01/M01 A3037 RMK A01 T00141009  RH  085%=      5-min Rain = 0
KEA1 101600Z 26008KT 01/M01 A3037 RMK A01 T00141010  RH  084%=      5-min Rain = 0
KEA1 101601Z 26008KT 01/M01 A3037 RMK A01 T00141009  RH  085%=      5-min Rain = 0
KEA1 101602Z 25009KT 02/M01 A3037 RMK A01 T00161008  RH  085%=      5-min Rain = 0
KEA1 101603Z 26011KT 02/M01 A3037 RMK A01 T00161008  RH  084%=      5-min Rain = 0
KEA1 101604Z 26010KT 02/M01 A3037 RMK A01 T00161011  RH  082%=      5-min Rain = 0
KEA1 101605Z 25008KT 02/M01 A3037 RMK A01 T00161010  RH  083%=      5-min Rain = 0
KEA1 101606Z 25010KT 02/M01 A3037 RMK A01 T00161009  RH  083%=      5-min Rain = 0
KEA1 101607Z 26009KT 02/M01 A3037 RMK A01 T00171009  RH  083%=      5-min Rain = 0
KEA1 101608Z 26009KT 02/M01 A3037 RMK A01 T00181009  RH  082%=      5-min Rain = 0
KEA1 101609Z 26008KT 02/M01 A3037 RMK A01 T00191008  RH  083%=      5-min Rain = 0
KEA1 101610Z 25008KT 02/M01 A3037 RMK A01 T00211005  RH  083%=      5-min Rain = 0
KEA1 101611Z 26010KT 02/M01 A3037 RMK A01 T00221006  RH  082%=      5-min Rain = 0
KEA1 101612Z 25009KT 02/M01 A3037 RMK A01 T00221007  RH  081%=      5-min Rain = 0
KEA1 101613Z 26008KT 02/M01 A3037 RMK A01 T00221006  RH  082%=      5-min Rain = 0
KEA1 101614Z 26008KT 02/M00 A3037 RMK A01 T00241004  RH  082%=      5-min Rain = 0
KEA1 101615Z 26009KT 03/M00 A3037 RMK A01 T00261003  RH  081%=      5-min Rain = 0
KEA1 101616Z 26009KT 03/M01 A3037 RMK A01 T00261005  RH  080%=      5-min Rain = 0
KEA1 101617Z 26009KT 03/M01 A3037 RMK A01 T00261007  RH  079%=      5-min Rain = 0
KEA1 101618Z 25008KT 03/M01 A3037 RMK A01 T00261006  RH  079%=      5-min Rain = 0
KEA1 101619Z 26008KT 03/M00 A3037 RMK A01 T00281004  RH  080%=      5-min Rain = 0
KEA1 101620Z 25009KT 03/M00 A3037 RMK A01 T00291004  RH  079%=      5-min Rain = 0
KEA1 101621Z 25008KT 03/M00 A3037 RMK A01 T00291004  RH  079%=      5-min Rain = 0
KEA1 101622Z 25007KT 03/M00 A3037 RMK A01 T00301002  RH  080%=      5-min Rain = 0
KEA1 101623Z 26007KT 03/00 A3037 RMK A01 T00320002  RH  081%=      5-min Rain = 0
KEA1 101624Z 26008KT 03/00 A3037 RMK A01 T003300-0  RH  079%=      5-min Rain = 0
KEA1 101625Z 26006KT 04/00 A3037 RMK A01 T00350001  RH  078%=      5-min Rain = 0
KEA1 101626Z 26008KT 04/00 A3037 RMK A01 T00360002  RH  078%=      5-min Rain = 0
KEA1 101627Z 26008KT 04/00 A3037 RMK A01 T00370000  RH  077%=      5-min Rain = 0
KEA1 101628Z 26007KT 04/00 A3037 RMK A01 T00370001  RH  077%=      5-min Rain = 0
KEA1 101629Z 26007KT 04/00 A3037 RMK A01 T00390001  RH  076%=      5-min Rain = 0
KEA1 101630Z 26008KT 04/00 A3037 RMK A01 T00390001  RH  076%=      5-min Rain = 0
KEA1 101631Z 26008KT 04/00 A3037 RMK A01 T003900-0  RH  076%=      5-min Rain = 0
KEA1 101632Z 26009KT 04/00 A3037 RMK A01 T00390000  RH  076%=      5-min Rain = 0
KEA1 101633Z 26008KT 04/00 A3037 RMK A01 T00400000  RH  075%=      5-min Rain = 0
KEA1 101634Z 25008KT 04/00 A3037 RMK A01 T00410001  RH  075%=      5-min Rain = 0
KEA1 101635Z 26007KT 04/M00 A3037 RMK A01 T00411001  RH  074%=      5-min Rain = 0
KEA1 101636Z 25007KT 04/00 A3037 RMK A01 T00410001  RH  075%=      5-min Rain = 0
KEA1 101637Z 26007KT 04/00 A3036 RMK A01 T00420002  RH  075%=      5-min Rain = 0
KEA1 101638Z 25008KT 04/00 A3036 RMK A01 T00420001  RH  075%=      5-min Rain = 0
KEA1 101639Z 25009KT 04/M00 A3036 RMK A01 T00421001  RH  073%=      5-min Rain = 0
KEA1 101640Z 25008KT 04/M00 A3036 RMK A01 T00421003  RH  072%=      5-min Rain = 0
KEA1 101641Z 25008KT 04/M00 A3036 RMK A01 T00421003  RH  073%=      5-min Rain = 0
KEA1 101642Z 25009KT 04/M00 A3036 RMK A01 T00431001  RH  073%=      5-min Rain = 0
KEA1 101643Z 26008KT 04/00 A3036 RMK A01 T00440001  RH  074%=      5-min Rain = 0
KEA1 101644Z 25009KT 04/00 A3036 RMK A01 T00440000  RH  073%=      5-min Rain = 0
KEA1 101645Z 26009KT 04/M00 A3036 RMK A01 T00441001  RH  072%=      5-min Rain = 0
KEA1 101646Z 26008KT 04/00 A3036 RMK A01 T004400-0  RH  073%=      5-min Rain = 0
KEA1 101647Z 26007KT 04/00 A3036 RMK A01 T00440002  RH  074%=      5-min Rain = 0
KEA1 101648Z 25007KT 05/00 A3036 RMK A01 T00460004  RH  074%=      5-min Rain = 0
KEA1 101649Z 25008KT 05/00 A3036 RMK A01 T00480003  RH  073%=      5-min Rain = 0
KEA1 101650Z 25007KT 05/00 A3036 RMK A01 T00480004  RH  073%=      5-min Rain = 0
KEA1 101651Z 25007KT 05/00 A3036 RMK A01 T00490004  RH  073%=      5-min Rain = 0
KEA1 101652Z 26008KT 05/00 A3036 RMK A01 T00500004  RH  072%=      5-min Rain = 0
KEA1 101653Z 26008KT 05/00 A3036 RMK A01 T00510003  RH  071%=      5-min Rain = 0
KEA1 101654Z 25009KT 05/00 A3036 RMK A01 T00520003  RH  071%=      5-min Rain = 0
KEA1 101655Z 25009KT 05/00 A3036 RMK A01 T00510002  RH  070%=      5-min Rain = 0
KEA1 101656Z 25008KT 05/00 A3036 RMK A01 T00510002  RH  071%=      5-min Rain = 0
KEA1 101657Z 25007KT 05/01 A3036 RMK A01 T00530006  RH  071%=      5-min Rain = 0
KEA1 101658Z 25008KT 06/01 A3036 RMK A01 T00570009  RH  071%=      5-min Rain = 0
KEA1 101659Z 25008KT 06/01 A3036 RMK A01 T00580005  RH  068%=      5-min Rain = 0
KEA1 101700Z 25009KT 06/00 A3036 RMK A01 T00580003  RH  068%=      5-min Rain = 0
KEA1 101701Z 25009KT 06/M00 A3036 RMK A01 T00571002  RH  066%=      5-min Rain = 0
KEA1 101702Z 26008KT 06/00 A3035 RMK A01 T00560000  RH  067%=      5-min Rain = 0
KEA1 101703Z 25009KT 06/00 A3035 RMK A01 T00580003  RH  068%=      5-min Rain = 0
KEA1 101704Z 26009KT 06/00 A3035 RMK A01 T00590001  RH  067%=      5-min Rain = 0
KEA1 101705Z 26009KT 06/00 A3035 RMK A01 T00590000  RH  066%=      5-min Rain = 0
KEA1 101706Z 25009KT 06/00 A3035 RMK A01 T00580002  RH  067%=      5-min Rain = 0
KEA1 101707Z 24007KT 06/01 A3035 RMK A01 T00600005  RH  068%=      5-min Rain = 0
KEA1 101708Z 23008KT 06/00 A3035 RMK A01 T00620004  RH  066%=      5-min Rain = 0
KEA1 101709Z 24009KT 06/M00 A3035 RMK A01 T00631001  RH  064%=      5-min Rain = 0
KEA1 101710Z 25009KT 06/00 A3035 RMK A01 T006300-0  RH  064%=      5-min Rain = 0
KEA1 101711Z 25009KT 06/M00 A3035 RMK A01 T00631003  RH  063%=      5-min Rain = 0
KEA1 101712Z 24009KT 06/M00 A3035 RMK A01 T00621001  RH  064%=      5-min Rain = 0
KEA1 101713Z 25009KT 06/M00 A3035 RMK A01 T00621002  RH  063%=      5-min Rain = 0
KEA1 101714Z 26008KT 06/00 A3035 RMK A01 T00630000  RH  064%=      5-min Rain = 0
KEA1 101715Z 26009KT 07/M00 A3035 RMK A01 T00651001  RH  063%=      5-min Rain = 0
KEA1 101716Z 26008KT 06/M00 A3035 RMK A01 T00641003  RH  062%=      5-min Rain = 0
KEA1 101717Z 27008KT 06/M00 A3035 RMK A01 T00641003  RH  062%=      5-min Rain = 0
KEA1 101718Z 27006KT 07/M00 A3035 RMK A01 T00651001  RH  063%=      5-min Rain = 0
KEA1 101719Z 27007KT 07/00 A3035 RMK A01 T00680002  RH  063%=      5-min Rain = 0
KEA1 101720Z 27007KT 07/00 A3035 RMK A01 T00680001  RH  062%=      5-min Rain = 0
KEA1 101721Z 27008KT 07/00 A3035 RMK A01 T00700001  RH  061%=      5-min Rain = 0
KEA1 101722Z 26007KT 07/M00 A3035 RMK A01 T00701002  RH  060%=      5-min Rain = 0
KEA1 101723Z 26007KT 07/M00 A3035 RMK A01 T00691001  RH  061%=      5-min Rain = 0
KEA1 101724Z 25007KT 07/00 A3035 RMK A01 T00690000  RH  061%=      5-min Rain = 0
KEA1 101725Z 26007KT 07/M00 A3035 RMK A01 T00691001  RH  061%=      5-min Rain = 0
KEA1 101726Z 26006KT 07/M00 A3035 RMK A01 T00681001  RH  061%=      5-min Rain = 0
KEA1 101727Z 27005KT 07/00 A3035 RMK A01 T00690003  RH  063%=      5-min Rain = 0
KEA1 101728Z 25004KT 07/00 A3035 RMK A01 T00720004  RH  062%=      5-min Rain = 0
KEA1 101729Z 27005KT 07/01 A3035 RMK A01 T00740006  RH  062%=      5-min Rain = 0
KEA1 101730Z 28005KT 08/01 A3035 RMK A01 T00760006  RH  061%=      5-min Rain = 0
KEA1 101731Z 27006KT 08/00 A3035 RMK A01 T00760003  RH  060%=      5-min Rain = 0
KEA1 101732Z 27005KT 08/00 A3035 RMK A01 T00760003  RH  060%=      5-min Rain = 0
KEA1 101733Z 28005KT 08/00 A3035 RMK A01 T00750003  RH  060%=      5-min Rain = 0
KEA1 101734Z 28005KT 08/01 A3035 RMK A01 T00770005  RH  060%=      5-min Rain = 0
KEA1 101735Z 28006KT 08/00 A3035 RMK A01 T00780003  RH  059%=      5-min Rain = 0
KEA1 101736Z 27008KT 08/00 A3035 RMK A01 T00780003  RH  059%=      5-min Rain = 0
KEA1 101737Z 27007KT 08/00 A3035 RMK A01 T00770002  RH  059%=      5-min Rain = 0
KEA1 101738Z 28005KT 08/01 A3035 RMK A01 T00770005  RH  060%=      5-min Rain = 0
KEA1 101739Z 27006KT 08/01 A3035 RMK A01 T00790006  RH  060%=      5-min Rain = 0
KEA1 101740Z 25005KT 08/00 A3035 RMK A01 T00800004  RH  059%=      5-min Rain = 0
KEA1 101741Z 25005KT 08/01 A3035 RMK A01 T00810007  RH  059%=      5-min Rain = 0
KEA1 101742Z 27005KT 08/01 A3035 RMK A01 T00830007  RH  059%=      5-min Rain = 0
KEA1 101743Z 26006KT 08/00 A3035 RMK A01 T00820002  RH  057%=      5-min Rain = 0
KEA1 101744Z 27006KT 08/01 A3035 RMK A01 T00800005  RH  059%=      5-min Rain = 0
KEA1 101745Z 27006KT 08/01 A3035 RMK A01 T00810005  RH  059%=      5-min Rain = 0
KEA1 101746Z 28006KT 08/01 A3035 RMK A01 T00820005  RH  058%=      5-min Rain = 0
KEA1 101747Z 28005KT 08/01 A3035 RMK A01 T00830005  RH  058%=      5-min Rain = 0
KEA1 101748Z 25007KT 08/01 A3035 RMK A01 T00840006  RH  058%=      5-min Rain = 0
KEA1 101749Z 25005KT 08/01 A3035 RMK A01 T00830005  RH  058%=      5-min Rain = 0
KEA1 101750Z 24004KT 08/01 A3035 RMK A01 T00820006  RH  059%=      5-min Rain = 0
KEA1 101751Z 24005KT 08/00 A3035 RMK A01 T00820004  RH  058%=      5-min Rain = 0
KEA1 101752Z 27008KT 08/01 A3035 RMK A01 T00820006  RH  059%=      5-min Rain = 0
KEA1 101753Z 28006KT 08/00 A3035 RMK A01 T00820004  RH  058%=      5-min Rain = 0
KEA1 101754Z 26005KT 08/01 A3035 RMK A01 T00830006  RH  058%=      5-min Rain = 0
KEA1 101755Z 25005KT 08/01 A3034 RMK A01 T00840006  RH  058%=      5-min Rain = 0
KEA1 101756Z 23004KT 08/00 A3034 RMK A01 T00840002  RH  057%=      5-min Rain = 0
KEA1 101757Z 25005KT 08/01 A3034 RMK A01 T00840006  RH  058%=      5-min Rain = 0
KEA1 101758Z 25007KT 09/01 A3034 RMK A01 T00850006  RH  058%=      5-min Rain = 0
KEA1 101759Z 26005KT 08/01 A3034 RMK A01 T00830005  RH  058%=      5-min Rain = 0
KEA1 101800Z 25006KT 08/01 A3034 RMK A01 T00830007  RH  059%=      5-min Rain = 0
KEA1 101801Z 25005KT 08/01 A3034 RMK A01 T00830005  RH  058%=      5-min Rain = 0
KEA1 101802Z 25005KT 09/01 A3034 RMK A01 T00850009  RH  059%=      5-min Rain = 0
KEA1 101803Z 28007KT 09/01 A3034 RMK A01 T00880009  RH  058%=      5-min Rain = 0
KEA1 101804Z 28006KT 09/01 A3034 RMK A01 T00880007  RH  057%=      5-min Rain = 0
KEA1 101805Z 28006KT 09/01 A3034 RMK A01 T00890009  RH  057%=      5-min Rain = 0
KEA1 101806Z 26007KT 09/01 A3034 RMK A01 T00900008  RH  057%=      5-min Rain = 0
KEA1 101807Z 28007KT 09/01 A3034 RMK A01 T00900009  RH  057%=      5-min Rain = 0
KEA1 101808Z 27008KT 09/01 A3034 RMK A01 T00900008  RH  056%=      5-min Rain = 0
KEA1 101809Z 27007KT 09/01 A3033 RMK A01 T00910012  RH  058%=      5-min Rain = 0
KEA1 101810Z 27008KT 09/01 A3033 RMK A01 T00930009  RH  056%=      5-min Rain = 0
KEA1 101811Z 25008KT 09/01 A3033 RMK A01 T00910007  RH  055%=      5-min Rain = 0
KEA1 101812Z 26008KT 09/01 A3033 RMK A01 T00890007  RH  056%=      5-min Rain = 0
KEA1 101813Z 25007KT 09/01 A3033 RMK A01 T00870008  RH  058%=      5-min Rain = 0
KEA1 101814Z 25007KT 09/01 A3033 RMK A01 T00860009  RH  058%=      5-min Rain = 0
KEA1 101815Z 25007KT 09/01 A3033 RMK A01 T00870007  RH  057%=      5-min Rain = 0
KEA1 101816Z 26009KT 09/01 A3033 RMK A01 T00870005  RH  056%=      5-min Rain = 0
KEA1 101817Z 26008KT 09/01 A3033 RMK A01 T00870005  RH  056%=      5-min Rain = 0
KEA1 101818Z 25008KT 09/00 A3033 RMK A01 T00870004  RH  056%=      5-min Rain = 0
KEA1 101819Z 25008KT 09/01 A3033 RMK A01 T00880006  RH  056%=      5-min Rain = 0
KEA1 101820Z 26007KT 09/01 A3033 RMK A01 T00890008  RH  057%=      5-min Rain = 0
KEA1 101821Z 26006KT 09/01 A3033 RMK A01 T00900010  RH  057%=      5-min Rain = 0
KEA1 101822Z 26005KT 09/01 A3033 RMK A01 T00910012  RH  058%=      5-min Rain = 0
KEA1 101823Z 25006KT 09/01 A3033 RMK A01 T00920014  RH  058%=      5-min Rain = 0
KEA1 101824Z 27007KT 10/01 A3033 RMK A01 T00950013  RH  057%=      5-min Rain = 0
KEA1 101825Z 28007KT 10/01 A3033 RMK A01 T00950009  RH  055%=      5-min Rain = 0
KEA1 101826Z 27007KT 10/01 A3032 RMK A01 T00950006  RH  054%=      5-min Rain = 0
KEA1 101827Z 27005KT 10/01 A3032 RMK A01 T00950010  RH  055%=      5-min Rain = 0
KEA1 101828Z 28006KT 10/02 A3032 RMK A01 T00990017  RH  057%=      5-min Rain = 0
KEA1 101829Z 27005KT 10/01 A3032 RMK A01 T01020012  RH  054%=      5-min Rain = 0
KEA1 101830Z 25005KT 10/01 A3032 RMK A01 T01010014  RH  055%=      5-min Rain = 0
KEA1 101831Z 25006KT 10/01 A3032 RMK A01 T01010012  RH  054%=      5-min Rain = 0
KEA1 101832Z 25008KT 10/01 A3032 RMK A01 T00990008  RH  053%=      5-min Rain = 0
KEA1 101833Z 27008KT 10/01 A3032 RMK A01 T00970009  RH  054%=      5-min Rain = 0
KEA1 101834Z 27008KT 10/00 A3032 RMK A01 T00970003  RH  052%=      5-min Rain = 0
KEA1 101835Z 28008KT 10/00 A3032 RMK A01 T00960002  RH  052%=      5-min Rain = 0
KEA1 101836Z 27007KT 10/00 A3032 RMK A01 T00960003  RH  052%=      5-min Rain = 0
KEA1 101837Z 27006KT 10/00 A3032 RMK A01 T00960004  RH  052%=      5-min Rain = 0
KEA1 101838Z 26008KT 10/01 A3032 RMK A01 T00970006  RH  053%=      5-min Rain = 0
KEA1 101839Z 26007KT 10/01 A3032 RMK A01 T00970005  RH  053%=      5-min Rain = 0
KEA1 101840Z 26006KT 10/01 A3032 RMK A01 T00970007  RH  053%=      5-min Rain = 0
KEA1 101841Z 25007KT 10/01 A3032 RMK A01 T00960008  RH  054%=      5-min Rain = 0
KEA1 101842Z 25006KT 10/01 A3032 RMK A01 T00960008  RH  054%=      5-min Rain = 0
KEA1 101843Z 25008KT 10/01 A3031 RMK A01 T00980010  RH  054%=      5-min Rain = 0
KEA1 101844Z 26006KT 10/01 A3031 RMK A01 T00970005  RH  053%=      5-min Rain = 0
KEA1 101845Z 26006KT 10/00 A3031 RMK A01 T00960003  RH  052%=      5-min Rain = 0
KEA1 101846Z 27008KT 10/01 A3031 RMK A01 T00980006  RH  053%=      5-min Rain = 0
KEA1 101847Z 26007KT 10/01 A3031 RMK A01 T01010005  RH  051%=      5-min Rain = 0
KEA1 101848Z 27006KT 10/01 A3031 RMK A01 T01020005  RH  051%=      5-min Rain = 0
KEA1 101849Z 26004KT 10/00 A3031 RMK A01 T01020001  RH  049%=      5-min Rain = 0
KEA1 101850Z 26006KT 10/01 A3031 RMK A01 T01020006  RH  051%=      5-min Rain = 0.01
KEA1 101851Z 27007KT 10/00 A3031 RMK A01 T01040004  RH  050%=      5-min Rain = 0
KEA1 101852Z 26006KT 10/00 A3031 RMK A01 T01040003  RH  049%=      5-min Rain = 0
KEA1 101853Z 24007KT 11/00 A3031 RMK A01 T01050004  RH  050%=      5-min Rain = 0
KEA1 101854Z 24006KT 11/00 A3031 RMK A01 T01060004  RH  049%=      5-min Rain = 0
KEA1 101855Z 24007KT 11/01 A3031 RMK A01 T01070008  RH  050%=      5-min Rain = 0
KEA1 101856Z 24006KT 11/00 A3031 RMK A01 T01060001  RH  048%=      5-min Rain = 0
KEA1 101857Z 24006KT 11/01 A3031 RMK A01 T01050006  RH  050%=      5-min Rain = 0
KEA1 101858Z 25007KT 11/00 A3031 RMK A01 T01060004  RH  049%=      5-min Rain = 0
KEA1 101859Z 25009KT 11/01 A3031 RMK A01 T01070005  RH  049%=      5-min Rain = 0
KEA1 101900Z 25006KT 11/01 A3031 RMK A01 T01060008  RH  051%=      5-min Rain = 0
KEA1 101901Z 23005KT 11/01 A3031 RMK A01 T01070006  RH  049%=      5-min Rain = 0
KEA1 101902Z 25007KT 11/00 A3031 RMK A01 T01080003  RH  048%=      5-min Rain = 0
KEA1 101903Z 25007KT 11/00 A3031 RMK A01 T01070002  RH  048%=      5-min Rain = 0
KEA1 101904Z 27007KT 11/00 A3031 RMK A01 T01060002  RH  049%=      5-min Rain = 0
KEA1 101905Z 26006KT 11/M00 A3031 RMK A01 T01061002  RH  047%=      5-min Rain = 0
KEA1 101906Z 26007KT 11/00 A3031 RMK A01 T01060000  RH  048%=      5-min Rain = 0
KEA1 101907Z 25007KT 11/M00 A3031 RMK A01 T01061002  RH  047%=      5-min Rain = 0
KEA1 101908Z 26008KT 11/00 A3031 RMK A01 T01070003  RH  049%=      5-min Rain = 0
KEA1 101909Z 27008KT 11/M00 A303 RMK A01 T01091004  RH  046%=      5-min Rain = 0
KEA1 101910Z 26007KT 11/M00 A303 RMK A01 T01081002  RH  046%=      5-min Rain = 0
KEA1 101911Z 25008KT 11/M00 A303 RMK A01 T01101001  RH  046%=      5-min Rain = 0
KEA1 101912Z 26007KT 11/M00 A303 RMK A01 T01101002  RH  046%=      5-min Rain = 0
KEA1 101913Z 26007KT 11/00 A303 RMK A01 T010900-0  RH  047%=      5-min Rain = 0
KEA1 101914Z 25007KT 11/M00 A303 RMK A01 T01121001  RH  046%=      5-min Rain = 0
KEA1 101915Z 26005KT 11/M01 A303 RMK A01 T01111006  RH  044%=      5-min Rain = 0
KEA1 101916Z 25005KT 11/M01 A303 RMK A01 T01101006  RH  044%=      5-min Rain = 0
KEA1 101917Z 25005KT 11/M00 A303 RMK A01 T01111002  RH  046%=      5-min Rain = 0
KEA1 101918Z 26003KT 11/M01 A303 RMK A01 T01121005  RH  044%=      5-min Rain = 0
KEA1 101919Z 23006KT 11/M00 A303 RMK A01 T01131003  RH  045%=      5-min Rain = 0
KEA1 101920Z 23007KT 11/M01 A303 RMK A01 T01141005  RH  044%=      5-min Rain = 0
KEA1 101921Z 26006KT 11/M01 A303 RMK A01 T01131006  RH  044%=      5-min Rain = 0
KEA1 101922Z 25007KT 11/M00 A303 RMK A01 T01131004  RH  044%=      5-min Rain = 0
KEA1 101923Z 24007KT 11/M00 A303 RMK A01 T01141004  RH  044%=      5-min Rain = 0
KEA1 101924Z 23008KT 12/M01 A303 RMK A01 T01161005  RH  043%=      5-min Rain = 0
KEA1 101925Z 26007KT 12/M01 A303 RMK A01 T01161008  RH  042%=      5-min Rain = 0
KEA1 101926Z 26006KT 12/M01 A303 RMK A01 T01151006  RH  043%=      5-min Rain = 0
KEA1 101927Z 26006KT 12/M01 A303 RMK A01 T01161006  RH  043%=      5-min Rain = 0
KEA1 101928Z 26005KT 12/M01 A303 RMK A01 T01181005  RH  043%=      5-min Rain = 0
KEA1 101929Z 26007KT 12/M01 A303 RMK A01 T01201006  RH  042%=      5-min Rain = 0
KEA1 101930Z 25007KT 12/M01 A303 RMK A01 T01201007  RH  041%=      5-min Rain = 0
KEA1 101931Z 25008KT 12/M01 A3029 RMK A01 T01191008  RH  041%=      5-min Rain = 0
KEA1 101932Z 24010KT 12/M02 A3029 RMK A01 T01201015  RH  039%=      5-min Rain = 0
KEA1 101933Z 23011KT 12/M02 A3029 RMK A01 T01211018  RH  038%=      5-min Rain = 0
KEA1 101934Z 23012KT 12/M02 A3029 RMK A01 T01201020  RH  038%=      5-min Rain = 0
KEA1 101935Z 23008KT 12/M02 A3029 RMK A01 T01201019  RH  038%=      5-min Rain = 0
KEA1 101936Z 23011KT 12/M02 A3029 RMK A01 T01211020  RH  037%=      5-min Rain = 0
KEA1 101937Z 24009KT 12/M02 A3029 RMK A01 T01201021  RH  037%=      5-min Rain = 0
KEA1 101938Z 24011KT 12/M02 A3029 RMK A01 T01191020  RH  038%=      5-min Rain = 0
KEA1 101939Z 24010KT 12/M02 A3029 RMK A01 T01201019  RH  038%=      5-min Rain = 0
KEA1 101940Z 24008KT 12/M02 A3029 RMK A01 T01201019  RH  038%=      5-min Rain = 0
KEA1 101941Z 25008KT 12/M02 A3029 RMK A01 T01201017  RH  038%=      5-min Rain = 0
KEA1 101942Z 25011KT 12/M02 A3029 RMK A01 T01221015  RH  039%=      5-min Rain = 0
KEA1 101943Z 25008KT 12/M02 A3029 RMK A01 T01211021  RH  037%=      5-min Rain = 0
KEA1 101944Z 25009KT 12/M01 A3029 RMK A01 T01221013  RH  039%=      5-min Rain = 0
KEA1 101945Z 24010KT 13/M01 A3029 RMK A01 T01261008  RH  040%=      5-min Rain = 0
KEA1 101946Z 25009KT 13/M02 A3029 RMK A01 T01261017  RH  037%=      5-min Rain = 0
KEA1 101947Z 25008KT 13/M01 A3029 RMK A01 T01251014  RH  038%=      5-min Rain = 0
KEA1 101948Z 24006KT 12/M02 A3028 RMK A01 T01241015  RH  038%=      5-min Rain = 0
KEA1 101949Z 23008KT 13/M02 A3028 RMK A01 T01251019  RH  037%=      5-min Rain = 0
KEA1 101950Z 25009KT 13/M01 A3028 RMK A01 T01271014  RH  038%=      5-min Rain = 0
KEA1 101951Z 23008KT 13/M01 A3028 RMK A01 T01291009  RH  039%=      5-min Rain = 0
KEA1 101952Z 24012KT 13/M02 A3028 RMK A01 T01301017  RH  036%=      5-min Rain = 0
KEA1 101953Z 24011KT 13/M03 A3028 RMK A01 T01271028  RH  034%=      5-min Rain = 0
KEA1 101954Z 24013KT 13/M03 A3028 RMK A01 T01251029  RH  034%=      5-min Rain = 0
KEA1 101955Z 24011KT 12/M03 A3028 RMK A01 T01241025  RH  035%=      5-min Rain = 0
KEA1 101956Z 24011KT 13/M02 A3028 RMK A01 T01251021  RH  036%=      5-min Rain = 0
KEA1 101957Z 24010KT 13/M02 A3028 RMK A01 T01251024  RH  035%=      5-min Rain = 0
KEA1 101958Z 24009KT 13/M03 A3028 RMK A01 T01251026  RH  035%=      5-min Rain = 0
KEA1 101959Z 24009KT 13/M02 A3028 RMK A01 T01251024  RH  035%=      5-min Rain = 0
KEA1 102000Z 24011KT 13/M02 A3028 RMK A01 T01261021  RH  036%=      5-min Rain = 0
KEA1 102001Z 24011KT 13/M02 A3028 RMK A01 T01261024  RH  035%=      5-min Rain = 0
KEA1 102002Z 24009KT 13/M02 A3028 RMK A01 T01251023  RH  036%=      5-min Rain = 0
KEA1 102003Z 24008KT 12/M02 A3028 RMK A01 T01231020  RH  037%=      5-min Rain = 0
KEA1 102004Z 24007KT 13/M01 A3028 RMK A01 T01271013  RH  038%=      5-min Rain = 0
KEA1 102005Z 23008KT 13/M01 A3028 RMK A01 T01301014  RH  037%=      5-min Rain = 0
KEA1 102006Z 24009KT 13/M03 A3028 RMK A01 T01311025  RH  034%=      5-min Rain = 0
KEA1 102007Z 25010KT 13/M02 A3028 RMK A01 T01291022  RH  035%=      5-min Rain = 0
KEA1 102008Z 24010KT 13/M02 A3028 RMK A01 T01271015  RH  037%=      5-min Rain = 0
KEA1 102009Z 26008KT 13/M02 A3028 RMK A01 T01271019  RH  036%=      5-min Rain = 0
KEA1 102010Z 20008KT 13/M02 A3028 RMK A01 T01271016  RH  037%=      5-min Rain = 0
KEA1 102011Z 23010KT 13/M02 A3028 RMK A01 T01291017  RH  036%=      5-min Rain = 0
KEA1 102012Z 21010KT 13/M01 A3028 RMK A01 T01291014  RH  037%=      5-min Rain = 0
KEA1 102013Z 21009KT 13/M02 A3027 RMK A01 T01301019  RH  036%=      5-min Rain = 0
KEA1 102014Z 25008KT 13/M02 A3028 RMK A01 T01311021  RH  035%=      5-min Rain = 0
KEA1 102015Z 23011KT 13/M01 A3028 RMK A01 T01311014  RH  037%=      5-min Rain = 0
KEA1 102016Z 22009KT 13/M02 A3027 RMK A01 T01301024  RH  034%=      5-min Rain = 0
KEA1 102017Z 24010KT 13/M02 A3027 RMK A01 T01281023  RH  035%=      5-min Rain = 0
KEA1 102018Z 23012KT 13/M02 A3027 RMK A01 T01271023  RH  035%=      5-min Rain = 0
KEA1 102019Z 24012KT 13/M03 A3027 RMK A01 T01281027  RH  034%=      5-min Rain = 0
KEA1 102020Z 24010KT 13/M03 A3027 RMK A01 T01281032  RH  033%=      5-min Rain = 0
KEA1 102021Z 25011KT 13/M03 A3027 RMK A01 T01281026  RH  034%=      5-min Rain = 0
KEA1 102022Z 24011KT 13/M03 A3027 RMK A01 T01281025  RH  035%=      5-min Rain = 0
KEA1 102023Z 25011KT 13/M03 A3027 RMK A01 T01281030  RH  033%=      5-min Rain = 0
KEA1 102024Z 24010KT 13/M03 A3027 RMK A01 T01281029  RH  034%=      5-min Rain = 0
KEA1 102025Z 23012KT 13/M03 A3027 RMK A01 T01281026  RH  034%=      5-min Rain = 0
KEA1 102026Z 24014KT 13/M04 A3027 RMK A01 T01291035  RH  032%=      5-min Rain = 0
KEA1 102027Z 24012KT 13/M03 A3027 RMK A01 T01281032  RH  033%=      5-min Rain = 0
KEA1 102028Z 24011KT 13/M03 A3027 RMK A01 T01281031  RH  033%=      5-min Rain = 0
KEA1 102029Z 24011KT 13/M03 A3027 RMK A01 T01291028  RH  033%=      5-min Rain = 0
KEA1 102030Z 25011KT 13/M03 A3027 RMK A01 T01301025  RH  034%=      5-min Rain = 0
KEA1 102031Z 25011KT 13/M03 A3027 RMK A01 T01301034  RH  032%=      5-min Rain = 0
KEA1 102032Z 25009KT 13/M03 A3027 RMK A01 T01281033  RH  032%=      5-min Rain = 0
KEA1 102033Z 26010KT 13/M03 A3027 RMK A01 T01291027  RH  034%=      5-min Rain = 0
KEA1 102034Z 23009KT 13/M03 A3027 RMK A01 T01301031  RH  033%=      5-min Rain = 0
KEA1 102035Z 24011KT 13/M03 A3027 RMK A01 T01321029  RH  033%=      5-min Rain = 0
KEA1 102036Z 23012KT 13/M03 A3027 RMK A01 T01311027  RH  033%=      5-min Rain = 0
KEA1 102037Z 22011KT 13/M03 A3027 RMK A01 T01311034  RH  031%=      5-min Rain = 0
KEA1 102038Z 24011KT 13/M03 A3027 RMK A01 T01311034  RH  032%=      5-min Rain = 0
KEA1 102039Z 25008KT 13/M03 A3027 RMK A01 T01301034  RH  032%=      5-min Rain = 0
KEA1 102040Z 24012KT 13/M03 A3027 RMK A01 T01311027  RH  033%=      5-min Rain = 0
KEA1 102041Z 24011KT 13/M03 A3027 RMK A01 T01321032  RH  032%=      5-min Rain = 0
KEA1 102042Z 24010KT 13/M03 A3027 RMK A01 T01311033  RH  032%=      5-min Rain = 0
KEA1 102043Z 24009KT 13/M03 A3027 RMK A01 T01311034  RH  031%=      5-min Rain = 0
KEA1 102044Z 25008KT 13/M04 A3027 RMK A01 T01321037  RH  031%=      5-min Rain = 0
KEA1 102045Z 24010KT 13/M04 A3027 RMK A01 T01311036  RH  031%=      5-min Rain = 0
KEA1 102046Z 24011KT 13/M04 A3026 RMK A01 T01321038  RH  030%=      5-min Rain = 0
KEA1 102047Z 24012KT 13/M04 A3026 RMK A01 T01321038  RH  030%=      5-min Rain = 0
KEA1 102048Z 25009KT 13/M04 A3026 RMK A01 T01331035  RH  031%=      5-min Rain = 0
KEA1 102049Z 25010KT 13/M03 A3026 RMK A01 T01331034  RH  031%=      5-min Rain = 0
KEA1 102050Z 26009KT 13/M03 A3026 RMK A01 T01331033  RH  031%=      5-min Rain = 0
KEA1 102051Z 24011KT 13/M04 A3026 RMK A01 T01331035  RH  031%=      5-min Rain = 0
KEA1 102052Z 23013KT 13/M04 A3026 RMK A01 T01331039  RH  030%=      5-min Rain = 0
KEA1 102053Z 22013KT 13/M04 A3026 RMK A01 T01331039  RH  030%=      5-min Rain = 0
KEA1 102054Z 23011KT 13/M04 A3026 RMK A01 T01321040  RH  030%=      5-min Rain = 0
KEA1 102055Z 22009KT 13/M04 A3026 RMK A01 T01311037  RH  031%=      5-min Rain = 0
KEA1 102056Z 23009KT 13/M04 A3026 RMK A01 T01331035  RH  031%=      5-min Rain = 0
KEA1 102057Z 24009KT 13/M03 A3026 RMK A01 T01341026  RH  033%=      5-min Rain = 0
KEA1 102058Z 24010KT 14/M02 A3026 RMK A01 T01371020  RH  034%=      5-min Rain = 0
KEA1 102059Z 24011KT 14/M03 A3026 RMK A01 T01381032  RH  031%=      5-min Rain = 0
KEA1 102100Z 24007KT 14/M04 A3026 RMK A01 T01351036  RH  030%=      5-min Rain = 0
KEA1 102101Z 25009KT 14/M03 A3026 RMK A01 T01351033  RH  031%=      5-min Rain = 0
KEA1 102102Z 25010KT 14/M04 A3026 RMK A01 T01351037  RH  030%=      5-min Rain = 0
KEA1 102103Z 25009KT 14/M05 A3026 RMK A01 T01351047  RH  028%=      5-min Rain = 0
KEA1 102104Z 24011KT 14/M06 A3026 RMK A01 T01351055  RH  026%=      5-min Rain = 0
KEA1 102105Z 24009KT 14/M05 A3026 RMK A01 T01351054  RH  026%=      5-min Rain = 0
KEA1 102106Z 24009KT 14/M06 A3026 RMK A01 T01351056  RH  026%=      5-min Rain = 0
KEA1 102107Z 25009KT 14/M05 A3026 RMK A01 T01361049  RH  027%=      5-min Rain = 0
KEA1 102108Z 25011KT 14/M05 A3026 RMK A01 T01371053  RH  026%=      5-min Rain = 0
KEA1 102109Z 24011KT 14/M04 A3026 RMK A01 T01361044  RH  028%=      5-min Rain = 0
KEA1 102110Z 25010KT 14/M05 A3025 RMK A01 T01361051  RH  027%=      5-min Rain = 0
KEA1 102111Z 25009KT 14/M05 A3025 RMK A01 T01351054  RH  026%=      5-min Rain = 0
KEA1 102112Z 26008KT 13/M05 A3025 RMK A01 T01341053  RH  027%=      5-min Rain = 0
KEA1 102113Z 25008KT 13/M05 A3025 RMK A01 T01341054  RH  027%=      5-min Rain = 0
KEA1 102114Z 24009KT 14/M06 A3025 RMK A01 T01351061  RH  025%=      5-min Rain = 0
KEA1 102115Z 25009KT 14/M06 A3025 RMK A01 T01351064  RH  025%=      5-min Rain = 0
KEA1 102116Z 24012KT 14/M05 A3025 RMK A01 T01361051  RH  027%=      5-min Rain = 0
KEA1 102117Z 25009KT 14/M05 A3025 RMK A01 T01351048  RH  028%=      5-min Rain = 0
KEA1 102118Z 23008KT 14/M05 A3025 RMK A01 T01351047  RH  028%=      5-min Rain = 0
KEA1 102119Z 24010KT 14/M05 A3025 RMK A01 T01361047  RH  028%=      5-min Rain = 0
KEA1 102120Z 25009KT 14/M05 A3025 RMK A01 T01361051  RH  027%=      5-min Rain = 0
KEA1 102121Z 25011KT 14/M06 A3025 RMK A01 T01361059  RH  025%=      5-min Rain = 0
KEA1 102122Z 25009KT 14/M06 A3025 RMK A01 T01351062  RH  025%=      5-min Rain = 0
KEA1 102123Z 24008KT 14/M05 A3025 RMK A01 T01361051  RH  027%=      5-min Rain = 0
KEA1 102124Z 24010KT 14/M05 A3025 RMK A01 T01371049  RH  027%=      5-min Rain = 0
KEA1 102125Z 24008KT 14/M06 A3025 RMK A01 T01371055  RH  026%=      5-min Rain = 0
KEA1 102126Z 25007KT 14/M06 A3025 RMK A01 T01361057  RH  026%=      5-min Rain = 0
KEA1 102127Z 25010KT 14/M05 A3025 RMK A01 T01351054  RH  026%=      5-min Rain = 0
KEA1 102128Z 25012KT 14/M06 A3025 RMK A01 T01361059  RH  025%=      5-min Rain = 0
KEA1 102129Z 26011KT 14/M07 A3025 RMK A01 T01351067  RH  024%=      5-min Rain = 0
KEA1 102130Z 26010KT 14/M07 A3025 RMK A01 T01351072  RH  023%=      5-min Rain = 0
KEA1 102131Z 27009KT 13/M07 A3025 RMK A01 T01341069  RH  024%=      5-min Rain = 0
KEA1 102132Z 26008KT 14/M07 A3025 RMK A01 T01351070  RH  023%=      5-min Rain = 0
KEA1 102133Z 26009KT 14/M06 A3025 RMK A01 T01361062  RH  025%=      5-min Rain = 0
KEA1 102134Z 27010KT 14/M06 A3025 RMK A01 T01371061  RH  025%=      5-min Rain = 0
KEA1 102135Z 27010KT 14/M06 A3025 RMK A01 T01371061  RH  025%=      5-min Rain = 0
KEA1 102136Z 27009KT 14/M06 A3025 RMK A01 T01371063  RH  024%=      5-min Rain = 0
KEA1 102137Z 25010KT 14/M07 A3025 RMK A01 T01381065  RH  024%=      5-min Rain = 0
KEA1 102138Z 25008KT 14/M06 A3025 RMK A01 T01381056  RH  026%=      5-min Rain = 0
KEA1 102139Z 26009KT 14/M05 A3025 RMK A01 T01391052  RH  026%=      5-min Rain = 0
KEA1 102140Z 27008KT 14/M06 A3025 RMK A01 T01391061  RH  025%=      5-min Rain = 0
KEA1 102141Z 25010KT 14/M06 A3025 RMK A01 T01381062  RH  025%=      5-min Rain = 0
KEA1 102142Z 25011KT 14/M06 A3025 RMK A01 T01361057  RH  026%=      5-min Rain = 0
KEA1 102143Z 24011KT 14/M06 A3025 RMK A01 T01361057  RH  026%=      5-min Rain = 0
KEA1 102144Z 23010KT 14/M06 A3025 RMK A01 T01351063  RH  025%=      5-min Rain = 0
KEA1 102145Z 23010KT 14/M06 A3025 RMK A01 T01361062  RH  025%=      5-min Rain = 0
KEA1 102146Z 24010KT 14/M06 A3025 RMK A01 T01361064  RH  024%=      5-min Rain = 0
KEA1 102147Z 24008KT 14/M06 A3025 RMK A01 T01351058  RH  026%=      5-min Rain = 0
KEA1 102148Z 25009KT 14/M05 A3025 RMK A01 T01361054  RH  026%=      5-min Rain = 0
KEA1 102149Z 25008KT 14/M06 A3025 RMK A01 T01351057  RH  026%=      5-min Rain = 0
KEA1 102150Z 24008KT 13/M05 A3025 RMK A01 T01341052  RH  027%=      5-min Rain = 0
KEA1 102151Z 23010KT 14/M05 A3025 RMK A01 T01351052  RH  027%=      5-min Rain = 0
KEA1 102152Z 23010KT 14/M05 A3025 RMK A01 T01351051  RH  027%=      5-min Rain = 0
KEA1 102153Z 24010KT 14/M05 A3025 RMK A01 T01351050  RH  027%=      5-min Rain = 0
KEA1 102154Z 24009KT 13/M05 A3025 RMK A01 T01341048  RH  028%=      5-min Rain = 0
KEA1 102155Z 24008KT 13/M04 A3025 RMK A01 T01341042  RH  029%=      5-min Rain = 0
KEA1 102156Z 26008KT 13/M05 A3025 RMK A01 T01341048  RH  028%=      5-min Rain = 0
KEA1 102157Z 25008KT 13/M04 A3025 RMK A01 T01341044  RH  029%=      5-min Rain = 0
KEA1 102158Z 24010KT 13/M04 A3025 RMK A01 T01341044  RH  029%=      5-min Rain = 0
KEA1 102159Z 25008KT 13/M05 A3025 RMK A01 T01331051  RH  027%=      5-min Rain = 0
KEA1 102200Z 24007KT 13/M05 A3025 RMK A01 T01331050  RH  028%=      5-min Rain = 0
KEA1 102201Z 24008KT 13/M05 A3025 RMK A01 T01321047  RH  029%=      5-min Rain = 0
KEA1 102202Z 24009KT 13/M05 A3025 RMK A01 T01321048  RH  028%=      5-min Rain = 0
KEA1 102203Z 24008KT 13/M05 A3025 RMK A01 T01321050  RH  028%=      5-min Rain = 0
KEA1 102204Z 24007KT 13/M05 A3025 RMK A01 T01321046  RH  029%=      5-min Rain = 0
KEA1 102205Z 23008KT 13/M05 A3025 RMK A01 T01321045  RH  029%=      5-min Rain = 0
KEA1 102206Z 24007KT 13/M05 A3025 RMK A01 T01321048  RH  028%=      5-min Rain = 0
KEA1 102207Z 25009KT 13/M05 A3025 RMK A01 T01321046  RH  029%=      5-min Rain = 0
KEA1 102208Z 25008KT 13/M04 A3025 RMK A01 T01321044  RH  029%=      5-min Rain = 0
KEA1 102209Z 25008KT 13/M04 A3025 RMK A01 T01321044  RH  029%=      5-min Rain = 0
KEA1 102210Z 24009KT 13/M05 A3025 RMK A01 T01321047  RH  028%=      5-min Rain = 0
KEA1 102211Z 23011KT 13/M05 A3025 RMK A01 T01321046  RH  029%=      5-min Rain = 0
KEA1 102212Z 24010KT 13/M05 A3025 RMK A01 T01321047  RH  029%=      5-min Rain = 0
KEA1 102213Z 24008KT 13/M04 A3025 RMK A01 T01311044  RH  029%=      5-min Rain = 0
KEA1 102214Z 25009KT 13/M04 A3025 RMK A01 T01301044  RH  029%=      5-min Rain = 0
KEA1 102215Z 25008KT 13/M04 A3025 RMK A01 T01301044  RH  029%=      5-min Rain = 0
KEA1 102216Z 24007KT 13/M04 A3025 RMK A01 T01301041  RH  030%=      5-min Rain = 0
KEA1 102217Z 24007KT 13/M04 A3025 RMK A01 T01291041  RH  030%=      5-min Rain = 0
KEA1 102218Z 25008KT 13/M04 A3025 RMK A01 T01291043  RH  030%=      5-min Rain = 0
KEA1 102219Z 25007KT 13/M04 A3025 RMK A01 T01281043  RH  030%=      5-min Rain = 0
KEA1 102220Z 24005KT 13/M04 A3025 RMK A01 T01281036  RH  032%=      5-min Rain = 0
KEA1 102221Z 25007KT 13/M04 A3025 RMK A01 T01271035  RH  032%=      5-min Rain = 0
KEA1 102222Z 25007KT 13/M04 A3025 RMK A01 T01271038  RH  032%=      5-min Rain = 0
KEA1 102223Z 25007KT 13/M04 A3025 RMK A01 T01271038  RH  032%=      5-min Rain = 0
KEA1 102224Z 26007KT 13/M04 A3025 RMK A01 T01271037  RH  032%=      5-min Rain = 0
KEA1 102225Z 26007KT 13/M04 A3025 RMK A01 T01271038  RH  032%=      5-min Rain = 0
KEA1 102226Z 25008KT 13/M04 A3025 RMK A01 T01281038  RH  031%=      5-min Rain = 0
KEA1 102227Z 25008KT 13/M04 A3025 RMK A01 T01271038  RH  032%=      5-min Rain = 0
KEA1 102228Z 24007KT 13/M04 A3025 RMK A01 T01261036  RH  032%=      5-min Rain = 0
KEA1 102229Z 25007KT 13/M03 A3025 RMK A01 T01251034  RH  033%=      5-min Rain = 0
KEA1 102230Z 25009KT 13/M04 A3025 RMK A01 T01251038  RH  032%=      5-min Rain = 0
KEA1 102231Z 25008KT 13/M04 A3025 RMK A01 T01251039  RH  032%=      5-min Rain = 0
KEA1 102232Z 25007KT 13/M04 A3025 RMK A01 T01251035  RH  032%=      5-min Rain = 0
KEA1 102233Z 25007KT 13/M03 A3025 RMK A01 T01261033  RH  033%=      5-min Rain = 0
KEA1 102234Z 25007KT 13/M04 A3025 RMK A01 T01261035  RH  032%=      5-min Rain = 0
KEA1 102235Z 25007KT 13/M03 A3025 RMK A01 T01261033  RH  033%=      5-min Rain = 0
KEA1 102236Z 25007KT 13/M03 A3025 RMK A01 T01251034  RH  033%=      5-min Rain = 0
KEA1 102237Z 25007KT 13/M03 A3026 RMK A01 T01251033  RH  033%=      5-min Rain = 0
KEA1 102238Z 25006KT 12/M03 A3026 RMK A01 T01241031  RH  034%=      5-min Rain = 0
KEA1 102239Z 26006KT 12/M03 A3026 RMK A01 T01241030  RH  034%=      5-min Rain = 0
KEA1 102240Z 26006KT 12/M03 A3026 RMK A01 T01231032  RH  034%=      5-min Rain = 0
KEA1 102241Z 25007KT 12/M03 A3026 RMK A01 T01231033  RH  033%=      5-min Rain = 0
KEA1 102242Z 25007KT 12/M03 A3026 RMK A01 T01241034  RH  033%=      5-min Rain = 0
KEA1 102243Z 24007KT 13/M03 A3026 RMK A01 T01251033  RH  033%=      5-min Rain = 0
KEA1 102244Z 25006KT 13/M04 A3026 RMK A01 T01251039  RH  032%=      5-min Rain = 0
KEA1 102245Z 24006KT 13/M04 A3026 RMK A01 T01261038  RH  032%=      5-min Rain = 0
KEA1 102246Z 25006KT 13/M04 A3026 RMK A01 T01271040  RH  031%=      5-min Rain = 0
KEA1 102247Z 25006KT 13/M04 A3026 RMK A01 T01271039  RH  031%=      5-min Rain = 0
KEA1 102248Z 25006KT 13/M04 A3026 RMK A01 T01271041  RH  031%=      5-min Rain = 0
KEA1 102249Z 24006KT 13/M04 A3026 RMK A01 T01271043  RH  030%=      5-min Rain = 0
KEA1 102250Z 25006KT 13/M04 A3026 RMK A01 T01261038  RH  032%=      5-min Rain = 0
KEA1 102251Z 25006KT 13/M04 A3026 RMK A01 T01261040  RH  031%=      5-min Rain = 0
KEA1 102252Z 25006KT 13/M04 A3026 RMK A01 T01251041  RH  031%=      5-min Rain = 0
KEA1 102253Z 25007KT 13/M04 A3026 RMK A01 T01251044  RH  030%=      5-min Rain = 0
KEA1 102254Z 25006KT 13/M05 A3026 RMK A01 T01251045  RH  030%=      5-min Rain = 0
KEA1 102255Z 25005KT 13/M04 A3026 RMK A01 T01251038  RH  032%=      5-min Rain = 0
KEA1 102256Z 25006KT 12/M04 A3026 RMK A01 T01241037  RH  032%=      5-min Rain = 0
KEA1 102257Z 25006KT 12/M04 A3026 RMK A01 T01241038  RH  032%=      5-min Rain = 0
KEA1 102258Z 24006KT 12/M04 A3026 RMK A01 T01231043  RH  031%=      5-min Rain = 0
KEA1 102259Z 25006KT 12/M04 A3025 RMK A01 T01231042  RH  031%=      5-min Rain = 0
KEA1 102300Z 25007KT 12/M04 A3025 RMK A01 T01231042  RH  031%=      5-min Rain = 0
KEA1 102301Z 22007KT 12/M04 A3025 RMK A01 T01231043  RH  031%=      5-min Rain = 0
KEA1 102302Z 20009KT 12/M03 A3025 RMK A01 T01231032  RH  034%=      5-min Rain = 0
KEA1 102303Z 19009KT 12/M03 A3025 RMK A01 T01211025  RH  036%=      5-min Rain = 0
KEA1 102304Z 19010KT 12/M02 A3025 RMK A01 T01181024  RH  037%=      5-min Rain = 0
KEA1 102305Z 19009KT 12/M02 A3025 RMK A01 T01161022  RH  038%=      5-min Rain = 0
KEA1 102306Z 19009KT 12/M02 A3025 RMK A01 T01151020  RH  039%=      5-min Rain = 0
KEA1 102307Z 18009KT 11/M02 A3025 RMK A01 T01141018  RH  040%=      5-min Rain = 0
KEA1 102308Z 19008KT 11/M02 A3025 RMK A01 T01131018  RH  040%=      5-min Rain = 0
KEA1 102309Z 18008KT 11/M02 A3025 RMK A01 T01121018  RH  040%=      5-min Rain = 0
KEA1 102310Z 18008KT 11/M02 A3025 RMK A01 T01111017  RH  041%=      5-min Rain = 0
KEA1 102311Z 18008KT 11/M02 A3025 RMK A01 T01101016  RH  041%=      5-min Rain = 0
KEA1 102312Z 18007KT 11/M02 A3025 RMK A01 T01081016  RH  042%=      5-min Rain = 0
KEA1 102313Z 18008KT 11/M02 A3025 RMK A01 T01071015  RH  043%=      5-min Rain = 0
KEA1 102314Z 17008KT 11/M01 A3025 RMK A01 T01061014  RH  043%=      5-min Rain = 0
KEA1 102315Z 17009KT 10/M01 A3025 RMK A01 T01041014  RH  044%=      5-min Rain = 0
KEA1 102316Z 17009KT 10/M01 A3025 RMK A01 T01021013  RH  045%=      5-min Rain = 0
KEA1 102317Z 17009KT 10/M01 A3025 RMK A01 T01011011  RH  046%=      5-min Rain = 0
KEA1 102318Z 17009KT 10/M01 A3025 RMK A01 T00991009  RH  047%=      5-min Rain = 0
KEA1 102319Z 17009KT 10/M01 A3025 RMK A01 T00981008  RH  047%=      5-min Rain = 0
KEA1 102320Z 17009KT 10/M01 A3025 RMK A01 T00981008  RH  048%=      5-min Rain = 0
KEA1 102321Z 18009KT 10/M01 A3025 RMK A01 T00961008  RH  048%=      5-min Rain = 0
KEA1 102322Z 18009KT 10/M01 A3025 RMK A01 T00951007  RH  049%=      5-min Rain = 0
KEA1 102323Z 18009KT 09/M01 A3025 RMK A01 T00941007  RH  049%=      5-min Rain = 0
KEA1 102324Z 18009KT 09/M01 A3025 RMK A01 T00941007  RH  049%=      5-min Rain = 0
KEA1 102325Z 18009KT 09/M01 A3025 RMK A01 T00931007  RH  050%=      5-min Rain = 0
KEA1 102326Z 18009KT 09/M01 A3025 RMK A01 T00921007  RH  050%=      5-min Rain = 0
KEA1 102327Z 18009KT 09/M01 A3025 RMK A01 T00911008  RH  050%=      5-min Rain = 0
KEA1 102328Z 18010KT 09/M01 A3025 RMK A01 T00901008  RH  050%=      5-min Rain = 0
KEA1 102329Z 18010KT 09/M01 A3025 RMK A01 T00881008  RH  051%=      5-min Rain = 0
KEA1 102330Z 18010KT 09/M01 A3025 RMK A01 T00871008  RH  051%=      5-min Rain = 0
KEA1 102331Z 18010KT 09/M01 A3025 RMK A01 T00851008  RH  052%=      5-min Rain = 0
KEA1 102332Z 18010KT 08/M01 A3025 RMK A01 T00841008  RH  052%=      5-min Rain = 0
KEA1 102333Z 18010KT 08/M01 A3025 RMK A01 T00831008  RH  053%=      5-min Rain = 0
KEA1 102334Z 18011KT 08/M01 A3025 RMK A01 T00831007  RH  053%=      5-min Rain = 0
KEA1 102335Z 18011KT 08/M01 A3025 RMK A01 T00821007  RH  053%=      5-min Rain = 0
KEA1 102336Z 18011KT 08/M01 A3025 RMK A01 T00801008  RH  054%=      5-min Rain = 0
KEA1 102337Z 18011KT 08/M01 A3025 RMK A01 T00791008  RH  054%=      5-min Rain = 0
KEA1 102338Z 18011KT 08/M01 A3025 RMK A01 T00771008  RH  055%=      5-min Rain = 0
KEA1 102339Z 18011KT 08/M01 A3025 RMK A01 T00761008  RH  056%=      5-min Rain = 0
KEA1 102340Z 18011KT 08/M01 A3025 RMK A01 T00751007  RH  056%=      5-min Rain = 0
KEA1 102341Z 18011KT 07/M01 A3025 RMK A01 T00741008  RH  056%=      5-min Rain = 0
KEA1 102342Z 18011KT 07/M01 A3025 RMK A01 T00721008  RH  057%=      5-min Rain = 0
KEA1 102343Z 18011KT 07/M01 A3025 RMK A01 T00701008  RH  058%=      5-min Rain = 0
KEA1 102344Z 18011KT 07/M01 A3025 RMK A01 T00691007  RH  058%=      5-min Rain = 0
KEA1 102345Z 18010KT 07/M01 A3025 RMK A01 T00671007  RH  059%=      5-min Rain = 0
KEA1 102346Z 18010KT 07/M01 A3025 RMK A01 T00661007  RH  060%=      5-min Rain = 0
KEA1 102347Z 18010KT 07/M01 A3025 RMK A01 T00651007  RH  060%=      5-min Rain = 0
KEA1 102348Z 18010KT 06/M01 A3025 RMK A01 T00631006  RH  061%=      5-min Rain = 0
KEA1 102349Z 18011KT 06/M01 A3025 RMK A01 T00631006  RH  061%=      5-min Rain = 0
KEA1 102350Z 18011KT 06/M01 A3025 RMK A01 T00621006  RH  062%=      5-min Rain = 0
KEA1 102351Z 18010KT 06/M01 A3025 RMK A01 T00611006  RH  062%=      5-min Rain = 0
KEA1 102352Z 18010KT 06/M01 A3025 RMK A01 T00601006  RH  063%=      5-min Rain = 0
KEA1 102353Z 18011KT 06/M01 A3025 RMK A01 T00591006  RH  063%=      5-min Rain = 0
KEA1 102354Z 18011KT 06/M01 A3025 RMK A01 T00581005  RH  064%=      5-min Rain = 0
KEA1 102355Z 18011KT 06/M01 A3025 RMK A01 T00581005  RH  064%=      5-min Rain = 0
KEA1 102356Z 18012KT 06/M01 A3025 RMK A01 T00571005  RH  064%=      5-min Rain = 0
KEA1 102357Z 18012KT 06/M01 A3025 RMK A01 T00571005  RH  065%=      5-min Rain = 0
KEA1 102358Z 18012KT 06/M01 A3026 RMK A01 T00561006  RH  065%=      5-min Rain = 0
KEA1 102359Z 18012KT 05/M01 A3026 RMK A01 T00541006  RH  065%=      5-min Rain = 0
KEA1 110000Z 18012KT 05/M01 A3026 RMK A01 T00541007  RH  065%=      5-min Rain = 0
KEA1 110001Z 18012KT 05/M01 A3026 RMK A01 T00531007  RH  065%=      5-min Rain = 0
KEA1 110002Z 18012KT 05/M01 A3026 RMK A01 T00521007  RH  065%=      5-min Rain = 0
KEA1 110003Z 18011KT 05/M01 A3026 RMK A01 T00521007  RH  066%=      5-min Rain = 0
KEA1 110004Z 18011KT 05/M01 A3026 RMK A01 T00511008  RH  066%=      5-min Rain = 0
KEA1 110005Z 18011KT 05/M01 A3026 RMK A01 T00511008  RH  066%=      5-min Rain = 0
KEA1 110006Z 18011KT 05/M01 A3026 RMK A01 T00511008  RH  066%=      5-min Rain = 0
KEA1 110007Z 18011KT 05/M01 A3026 RMK A01 T00511008  RH  066%=      5-min Rain = 0
KEA1 110008Z 18011KT 05/M01 A3025 RMK A01 T00511009  RH  066%=      5-min Rain = 0
KEA1 110009Z 18011KT 05/M01 A3025 RMK A01 T00501008  RH  066%=      5-min Rain = 0
KEA1 110010Z 18011KT 05/M01 A3025 RMK A01 T00501008  RH  066%=      5-min Rain = 0
KEA1 110011Z 18011KT 05/M01 A3025 RMK A01 T00501009  RH  066%=      5-min Rain = 0
KEA1 110012Z 18011KT 05/M01 A3025 RMK A01 T00501010  RH  065%=      5-min Rain = 0
KEA1 110013Z 18010KT 05/M01 A3025 RMK A01 T00501010  RH  065%=      5-min Rain = 0
KEA1 110014Z 18010KT 05/M01 A3025 RMK A01 T00491011  RH  066%=      5-min Rain = 0
KEA1 110015Z 18010KT 05/M01 A3025 RMK A01 T00481011  RH  066%=      5-min Rain = 0
KEA1 110016Z 18010KT 05/M01 A3025 RMK A01 T00461012  RH  066%=      5-min Rain = 0
KEA1 110017Z 18010KT 05/M01 A3025 RMK A01 T00451013  RH  066%=      5-min Rain = 0
KEA1 110018Z 18011KT 04/M01 A3025 RMK A01 T00441013  RH  067%=      5-min Rain = 0
KEA1 110019Z 18011KT 04/M01 A3025 RMK A01 T00431012  RH  067%=      5-min Rain = 0
KEA1 110020Z 18011KT 04/M01 A3025 RMK A01 T00431013  RH  067%=      5-min Rain = 0
KEA1 110021Z 18012KT 04/M01 A3026 RMK A01 T00421014  RH  067%=      5-min Rain = 0
KEA1 110022Z 18011KT 04/M01 A3026 RMK A01 T00401014  RH  068%=      5-min Rain = 0
KEA1 110023Z 18011KT 04/M01 A3026 RMK A01 T00391014  RH  068%=      5-min Rain = 0
KEA1 110024Z 18012KT 04/M01 A3026 RMK A01 T00391014  RH  068%=      5-min Rain = 0
KEA1 110025Z 18012KT 04/M01 A3026 RMK A01 T00381014  RH  068%=      5-min Rain = 0
KEA1 110026Z 18012KT 04/M01 A3026 RMK A01 T00381014  RH  069%=      5-min Rain = 0
KEA1 110027Z 18011KT 04/M01 A3026 RMK A01 T00381014  RH  069%=      5-min Rain = 0
KEA1 110028Z 18011KT 04/M01 A3026 RMK A01 T00371014  RH  069%=      5-min Rain = 0
KEA1 110029Z 18011KT 04/M02 A3026 RMK A01 T00371015  RH  069%=      5-min Rain = 0
KEA1 110030Z 18011KT 04/M02 A3026 RMK A01 T00361015  RH  069%=      5-min Rain = 0
KEA1 110031Z 18011KT 04/M02 A3026 RMK A01 T00351015  RH  070%=      5-min Rain = 0
KEA1 110032Z 18011KT 03/M02 A3026 RMK A01 T00341015  RH  070%=      5-min Rain = 0
KEA1 110033Z 18011KT 03/M01 A3026 RMK A01 T00341014  RH  070%=      5-min Rain = 0
KEA1 110034Z 18011KT 03/M01 A3026 RMK A01 T00341014  RH  071%=      5-min Rain = 0
KEA1 110035Z 18011KT 03/M01 A3026 RMK A01 T00341014  RH  071%=      5-min Rain = 0
KEA1 110036Z 18011KT 03/M01 A3026 RMK A01 T00341014  RH  071%=      5-min Rain = 0
KEA1 110037Z 18011KT 03/M01 A3026 RMK A01 T00341014  RH  071%=      5-min Rain = 0
KEA1 110038Z 18011KT 03/M01 A3026 RMK A01 T00331014  RH  071%=      5-min Rain = 0
KEA1 110039Z 18011KT 03/M01 A3026 RMK A01 T00331013  RH  072%=      5-min Rain = 0
KEA1 110040Z 18011KT 03/M01 A3026 RMK A01 T00331013  RH  072%=      5-min Rain = 0
KEA1 110041Z 18011KT 03/M01 A3026 RMK A01 T00331013  RH  072%=      5-min Rain = 0
KEA1 110042Z 18011KT 03/M01 A3026 RMK A01 T00341012  RH  072%=      5-min Rain = 0
KEA1 110043Z 18011KT 03/M01 A3026 RMK A01 T00331012  RH  072%=      5-min Rain = 0
KEA1 110044Z 18011KT 03/M01 A3026 RMK A01 T00331013  RH  072%=      5-min Rain = 0
KEA1 110045Z 18011KT 03/M01 A3026 RMK A01 T00321013  RH  072%=      5-min Rain = 0
KEA1 110046Z 18011KT 03/M01 A3026 RMK A01 T00311014  RH  073%=      5-min Rain = 0
KEA1 110047Z 18011KT 03/M01 A3026 RMK A01 T00301013  RH  073%=      5-min Rain = 0
KEA1 110048Z 18011KT 03/M01 A3026 RMK A01 T00301013  RH  074%=      5-min Rain = 0
KEA1 110049Z 18011KT 03/M01 A3026 RMK A01 T00291013  RH  074%=      5-min Rain = 0
KEA1 110050Z 18012KT 03/M01 A3026 RMK A01 T00301012  RH  074%=      5-min Rain = 0
KEA1 110051Z 18011KT 03/M01 A3026 RMK A01 T00301013  RH  074%=      5-min Rain = 0
KEA1 110052Z 18011KT 03/M01 A3026 RMK A01 T00301012  RH  074%=      5-min Rain = 0
KEA1 110053Z 18011KT 03/M01 A3026 RMK A01 T00301012  RH  074%=      5-min Rain = 0
KEA1 110054Z 18011KT 03/M01 A3026 RMK A01 T00301012  RH  074%=      5-min Rain = 0
KEA1 110055Z 18011KT 03/M01 A3026 RMK A01 T00301012  RH  074%=      5-min Rain = 0
KEA1 110056Z 18011KT 03/M01 A3026 RMK A01 T00301012  RH  074%=      5-min Rain = 0
KEA1 110057Z 18011KT 03/M01 A3026 RMK A01 T00301012  RH  074%=      5-min Rain = 0
KEA1 110058Z 18011KT 03/M01 A3026 RMK A01 T00301012  RH  074%=      5-min Rain = 0
KEA1 110059Z 18011KT 03/M01 A3026 RMK A01 T00291012  RH  074%=      5-min Rain = 0
KEA1 110100Z 18011KT 03/M01 A3026 RMK A01 T00301011  RH  074%=      5-min Rain = 0
KEA1 110101Z 18011KT 03/M01 A3026 RMK A01 T00301011  RH  074%=      5-min Rain = 0
KEA1 110102Z 18011KT 03/M01 A3026 RMK A01 T00301012  RH  074%=      5-min Rain = 0
KEA1 110103Z 18011KT 03/M01 A3026 RMK A01 T00301012  RH  074%=      5-min Rain = 0
KEA1 110104Z 19011KT 03/M01 A3026 RMK A01 T00301012  RH  074%=      5-min Rain = 0
KEA1 110105Z 19012KT 03/M01 A3026 RMK A01 T00301012  RH  074%=      5-min Rain = 0
KEA1 110106Z 19012KT 03/M01 A3026 RMK A01 T00301012  RH  074%=      5-min Rain = 0
KEA1 110107Z 19012KT 03/M01 A3026 RMK A01 T00301012  RH  074%=      5-min Rain = 0
KEA1 110108Z 19012KT 03/M01 A3026 RMK A01 T00301012  RH  074%=      5-min Rain = 0
KEA1 110109Z 19012KT 03/M01 A3026 RMK A01 T00291013  RH  074%=      5-min Rain = 0
KEA1 110110Z 19012KT 03/M01 A3026 RMK A01 T00301013  RH  074%=      5-min Rain = 0
KEA1 110111Z 19012KT 03/M01 A3026 RMK A01 T00301013  RH  073%=      5-min Rain = 0
KEA1 110112Z 19012KT 03/M01 A3026 RMK A01 T00301013  RH  073%=      5-min Rain = 0
KEA1 110113Z 19013KT 03/M01 A3026 RMK A01 T00291014  RH  073%=      5-min Rain = 0
KEA1 110114Z 19013KT 03/M01 A3026 RMK A01 T00291014  RH  073%=      5-min Rain = 0
KEA1 110115Z 19012KT 03/M01 A3026 RMK A01 T00291014  RH  073%=      5-min Rain = 0
KEA1 110116Z 19012KT 03/M01 A3026 RMK A01 T00291014  RH  073%=      5-min Rain = 0
KEA1 110117Z 19013KT 03/M01 A3026 RMK A01 T00291014  RH  073%=      5-min Rain = 0
KEA1 110118Z 19013KT 03/M01 A3026 RMK A01 T00291014  RH  073%=      5-min Rain = 0
KEA1 110119Z 19013KT 03/M01 A3026 RMK A01 T00301014  RH  073%=      5-min Rain = 0
KEA1 110120Z 19013KT 03/M02 A3026 RMK A01 T00301015  RH  073%=      5-min Rain = 0
KEA1 110121Z 19013KT 03/M02 A3026 RMK A01 T00301015  RH  072%=      5-min Rain = 0
KEA1 110122Z 19013KT 03/M02 A3026 RMK A01 T00311015  RH  072%=      5-min Rain = 0
KEA1 110123Z 19013KT 03/M02 A3026 RMK A01 T00311015  RH  072%=      5-min Rain = 0
KEA1 110124Z 19013KT 03/M02 A3026 RMK A01 T00311016  RH  071%=      5-min Rain = 0
KEA1 110125Z 19013KT 03/M02 A3026 RMK A01 T00311016  RH  071%=      5-min Rain = 0
KEA1 110126Z 19013KT 03/M02 A3026 RMK A01 T00311016  RH  071%=      5-min Rain = 0
KEA1 110127Z 19012KT 03/M02 A3026 RMK A01 T00301017  RH  072%=      5-min Rain = 0
KEA1 110128Z 19012KT 03/M02 A3026 RMK A01 T00281017  RH  072%=      5-min Rain = 0
KEA1 110129Z 19012KT 03/M02 A3026 RMK A01 T00271017  RH  073%=      5-min Rain = 0
KEA1 110130Z 18011KT 03/M02 A3026 RMK A01 T00251017  RH  074%=      5-min Rain = 0
KEA1 110131Z 17010KT 02/M02 A3027 RMK A01 T00241018  RH  074%=      5-min Rain = 0
KEA1 110132Z 15010KT 02/M02 A3027 RMK A01 T00211021  RH  074%=      5-min Rain = 0
KEA1 110133Z 16011KT 02/M02 A3027 RMK A01 T00171023  RH  075%=      5-min Rain = 0
KEA1 110134Z 16012KT 02/M02 A3027 RMK A01 T00161021  RH  076%=      5-min Rain = 0
KEA1 110135Z 17012KT 02/M02 A3027 RMK A01 T00161020  RH  077%=      5-min Rain = 0
KEA1 110136Z 16011KT 02/M02 A3027 RMK A01 T00181020  RH  076%=      5-min Rain = 0
KEA1 110137Z 17011KT 02/M02 A3027 RMK A01 T00181020  RH  076%=      5-min Rain = 0
KEA1 110138Z 17011KT 02/M02 A3027 RMK A01 T00181021  RH  076%=      5-min Rain = 0
KEA1 110139Z 17012KT 02/M02 A3027 RMK A01 T00171020  RH  076%=      5-min Rain = 0
KEA1 110140Z 17011KT 02/M02 A3027 RMK A01 T00181019  RH  076%=      5-min Rain = 0
KEA1 110141Z 18012KT 02/M02 A3027 RMK A01 T00191019  RH  076%=      5-min Rain = 0
KEA1 110142Z 17012KT 02/M02 A3027 RMK A01 T00191019  RH  076%=      5-min Rain = 0
KEA1 110143Z 17012KT 02/M02 A3027 RMK A01 T00201018  RH  076%=      5-min Rain = 0
KEA1 110144Z 17012KT 02/M02 A3027 RMK A01 T00211018  RH  076%=      5-min Rain = 0
KEA1 110145Z 17012KT 02/M02 A3027 RMK A01 T00211018  RH  076%=      5-min Rain = 0
KEA1 110146Z 17012KT 02/M02 A3027 RMK A01 T00211017  RH  076%=      5-min Rain = 0
KEA1 110147Z 18012KT 02/M02 A3027 RMK A01 T00211017  RH  076%=      5-min Rain = 0
KEA1 110148Z 18011KT 02/M02 A3027 RMK A01 T00211016  RH  076%=      5-min Rain = 0
KEA1 110149Z 17011KT 02/M02 A3027 RMK A01 T00211015  RH  077%=      5-min Rain = 0
KEA1 110150Z 17011KT 02/M02 A3027 RMK A01 T00211015  RH  077%=      5-min Rain = 0
KEA1 110151Z 17011KT 02/M01 A3027 RMK A01 T00221014  RH  077%=      5-min Rain = 0
KEA1 110152Z 17012KT 02/M01 A3027 RMK A01 T00221013  RH  077%=      5-min Rain = 0
KEA1 110153Z 17012KT 02/M01 A3027 RMK A01 T00221013  RH  078%=      5-min Rain = 0
KEA1 110154Z 17011KT 02/M01 A3027 RMK A01 T00231012  RH  078%=      5-min Rain = 0
KEA1 110155Z 18011KT 02/M01 A3027 RMK A01 T00231011  RH  078%=      5-min Rain = 0
KEA1 110156Z 18011KT 02/M01 A3027 RMK A01 T00231010  RH  078%=      5-min Rain = 0
KEA1 110157Z 17011KT 02/M01 A3027 RMK A01 T00241010  RH  079%=      5-min Rain = 0
KEA1 110158Z 17011KT 02/M01 A3027 RMK A01 T00241009  RH  079%=      5-min Rain = 0
KEA1 110159Z 17011KT 02/M01 A3027 RMK A01 T00241009  RH  079%=      5-min Rain = 0
KEA1 110200Z 17011KT 02/M01 A3027 RMK A01 T00241009  RH  079%=      5-min Rain = 0
KEA1 110201Z 17011KT 02/M01 A3027 RMK A01 T00241009  RH  079%=      5-min Rain = 0
KEA1 110202Z 17010KT 02/M01 A3027 RMK A01 T00241008  RH  079%=      5-min Rain = 0
KEA1 110203Z 17011KT 02/M01 A3027 RMK A01 T00241008  RH  079%=      5-min Rain = 0
KEA1 110204Z 17011KT 02/M01 A3027 RMK A01 T00241008  RH  079%=      5-min Rain = 0
KEA1 110205Z 18011KT 02/M01 A3027 RMK A01 T00241008  RH  079%=      5-min Rain = 0
KEA1 110206Z 18011KT 02/M01 A3027 RMK A01 T00241008  RH  079%=      5-min Rain = 0
KEA1 110207Z 18011KT 02/M01 A3027 RMK A01 T00241008  RH  080%=      5-min Rain = 0
KEA1 110208Z 18010KT 02/M01 A3027 RMK A01 T00241008  RH  080%=      5-min Rain = 0
KEA1 110209Z 18010KT 02/M01 A3027 RMK A01 T00241008  RH  079%=      5-min Rain = 0
KEA1 110210Z 18010KT 02/M01 A3027 RMK A01 T00241009  RH  079%=      5-min Rain = 0
KEA1 110211Z 18010KT 02/M01 A3027 RMK A01 T00231009  RH  079%=      5-min Rain = 0
KEA1 110212Z 18010KT 02/M01 A3027 RMK A01 T00231009  RH  080%=      5-min Rain = 0
KEA1 110213Z 18010KT 02/M01 A3027 RMK A01 T00231009  RH  080%=      5-min Rain = 0
KEA1 110214Z 18010KT 02/M01 A3027 RMK A01 T00221010  RH  079%=      5-min Rain = 0
KEA1 110215Z 18010KT 02/M01 A3027 RMK A01 T00221010  RH  079%=      5-min Rain = 0
KEA1 110216Z 18010KT 02/M01 A3027 RMK A01 T00211010  RH  080%=      5-min Rain = 0
KEA1 110217Z 18010KT 02/M01 A3027 RMK A01 T00201011  RH  080%=      5-min Rain = 0
KEA1 110218Z 18010KT 02/M01 A3027 RMK A01 T00201011  RH  080%=      5-min Rain = 0
KEA1 110219Z 18010KT 02/M01 A3027 RMK A01 T00191012  RH  080%=      5-min Rain = 0
KEA1 110220Z 18010KT 02/M01 A3027 RMK A01 T00181012  RH  081%=      5-min Rain = 0
KEA1 110221Z 18010KT 02/M01 A3027 RMK A01 T00171013  RH  081%=      5-min Rain = 0
KEA1 110222Z 18010KT 02/M01 A3027 RMK A01 T00161013  RH  081%=      5-min Rain = 0
KEA1 110223Z 18010KT 02/M01 A3027 RMK A01 T00151014  RH  081%=      5-min Rain = 0
KEA1 110224Z 18010KT 01/M02 A3027 RMK A01 T00141015  RH  081%=      5-min Rain = 0
KEA1 110225Z 18010KT 01/M02 A3027 RMK A01 T00131015  RH  082%=      5-min Rain = 0
KEA1 110226Z 18010KT 01/M02 A3027 RMK A01 T00131015  RH  082%=      5-min Rain = 0
KEA1 110227Z 18010KT 01/M02 A3027 RMK A01 T00121015  RH  082%=      5-min Rain = 0
KEA1 110228Z 18010KT 01/M02 A3027 RMK A01 T00121015  RH  082%=      5-min Rain = 0
KEA1 110229Z 18010KT 01/M02 A3027 RMK A01 T00111016  RH  082%=      5-min Rain = 0
KEA1 110230Z 18010KT 01/M02 A3027 RMK A01 T00101017  RH  082%=      5-min Rain = 0
KEA1 110231Z 18010KT 01/M02 A3027 RMK A01 T00101017  RH  082%=      5-min Rain = 0
KEA1 110232Z 18010KT 01/M02 A3027 RMK A01 T00091017  RH  083%=      5-min Rain = 0
KEA1 110233Z 18010KT 01/M02 A3027 RMK A01 T00091017  RH  083%=      5-min Rain = 0
KEA1 110234Z 18010KT 01/M02 A3027 RMK A01 T00091017  RH  083%=      5-min Rain = 0
KEA1 110235Z 18010KT 01/M02 A3027 RMK A01 T00081017  RH  083%=      5-min Rain = 0
KEA1 110236Z 18010KT 01/M02 A3027 RMK A01 T00091017  RH  083%=      5-min Rain = 0
KEA1 110237Z 18010KT 01/M02 A3027 RMK A01 T00081017  RH  083%=      5-min Rain = 0
KEA1 110238Z 18010KT 01/M02 A3027 RMK A01 T00081017  RH  083%=      5-min Rain = 0
KEA1 110239Z 18010KT 01/M02 A3027 RMK A01 T00081017  RH  084%=      5-min Rain = 0
KEA1 110240Z 18010KT 01/M02 A3027 RMK A01 T00081017  RH  083%=      5-min Rain = 0
KEA1 110241Z 18010KT 01/M02 A3027 RMK A01 T00071018  RH  083%=      5-min Rain = 0
KEA1 110242Z 18010KT 01/M02 A3027 RMK A01 T00071018  RH  083%=      5-min Rain = 0
KEA1 110243Z 18009KT 01/M02 A3027 RMK A01 T00061019  RH  083%=      5-min Rain = 0
KEA1 110244Z 18010KT 01/M02 A3027 RMK A01 T00061018  RH  084%=      5-min Rain = 0
KEA1 110245Z 18010KT 01/M02 A3027 RMK A01 T00061019  RH  084%=      5-min Rain = 0
KEA1 110246Z 18009KT 01/M02 A3027 RMK A01 T00051019  RH  084%=      5-min Rain = 0
KEA1 110247Z 18009KT 00/M02 A3027 RMK A01 T00041020  RH  084%=      5-min Rain = 0
KEA1 110248Z 18010KT 00/M02 A3027 RMK A01 T00041020  RH  084%=      5-min Rain = 0
KEA1 110249Z 18010KT 00/M02 A3027 RMK A01 T00041020  RH  084%=      5-min Rain = 0
KEA1 110250Z 18010KT 00/M02 A3027 RMK A01 T00041019  RH  084%=      5-min Rain = 0
KEA1 110251Z 18011KT 00/M02 A3027 RMK A01 T00031020  RH  084%=      5-min Rain = 0
KEA1 110252Z 18011KT 00/M02 A3027 RMK A01 T00031020  RH  084%=      5-min Rain = 0
KEA1 110253Z 18011KT 00/M02 A3027 RMK A01 T00031019  RH  085%=      5-min Rain = 0
KEA1 110254Z 18011KT 00/M02 A3027 RMK A01 T00031019  RH  085%=      5-min Rain = 0
KEA1 110255Z 18011KT 01/M02 A3027 RMK A01 T00051018  RH  085%=      5-min Rain = 0
KEA1 110256Z 18011KT 01/M02 A3027 RMK A01 T00051019  RH  084%=      5-min Rain = 0
KEA1 110257Z 18011KT 01/M02 A3027 RMK A01 T00051019  RH  084%=      5-min Rain = 0
KEA1 110258Z 18011KT 01/M02 A3027 RMK A01 T00051019  RH  084%=      5-min Rain = 0
KEA1 110259Z 18011KT 01/M02 A3027 RMK A01 T00051019  RH  084%=      5-min Rain = 0
KEA1 110300Z 18011KT 01/M02 A3027 RMK A01 T00051019  RH  084%=      5-min Rain = 0
KEA1 110301Z 18011KT 01/M02 A3027 RMK A01 T00051020  RH  084%=      5-min Rain = 0
KEA1 110302Z 18011KT 00/M02 A3027 RMK A01 T00041020  RH  084%=      5-min Rain = 0
KEA1 110303Z 18011KT 00/M02 A3027 RMK A01 T00031020  RH  084%=      5-min Rain = 0
KEA1 110304Z 18011KT 00/M02 A3027 RMK A01 T00031020  RH  084%=      5-min Rain = 0
KEA1 110305Z 18011KT 00/M02 A3027 RMK A01 T00031021  RH  084%=      5-min Rain = 0
KEA1 110306Z 18011KT 00/M02 A3027 RMK A01 T00021021  RH  085%=      5-min Rain = 0
KEA1 110307Z 18011KT 00/M02 A3027 RMK A01 T00021021  RH  085%=      5-min Rain = 0
KEA1 110308Z 18011KT 00/M02 A3027 RMK A01 T00021020  RH  085%=      5-min Rain = 0
KEA1 110309Z 18011KT 00/M02 A3027 RMK A01 T00021020  RH  085%=      5-min Rain = 0
KEA1 110310Z 18011KT 00/M02 A3027 RMK A01 T00031020  RH  085%=      5-min Rain = 0
KEA1 110311Z 18011KT 00/M02 A3027 RMK A01 T00021021  RH  085%=      5-min Rain = 0
KEA1 110312Z 18011KT 00/M02 A3027 RMK A01 T00021021  RH  085%=      5-min Rain = 0
KEA1 110313Z 18011KT 00/M02 A3027 RMK A01 T00021021  RH  085%=      5-min Rain = 0
KEA1 110314Z 18011KT 00/M02 A3027 RMK A01 T00011022  RH  085%=      5-min Rain = 0
KEA1 110315Z 18011KT 00/M02 A3027 RMK A01 T00011022  RH  085%=      5-min Rain = 0
KEA1 110316Z 18011KT 00/02 A3027 RMK A01 T00000-21  RH  085%=      5-min Rain = 0
KEA1 110317Z 18011KT 00/02 A3027 RMK A01 T00000-21  RH  085%=      5-min Rain = 0
KEA1 110318Z 19011KT 00/02 A3027 RMK A01 T00000-21  RH  085%=      5-min Rain = 0
KEA1 110319Z 19011KT 00/02 A3027 RMK A01 T00000-21  RH  086%=      5-min Rain = 0
KEA1 110320Z 19011KT 00/02 A3027 RMK A01 T00000-21  RH  086%=      5-min Rain = 0
KEA1 110321Z 19011KT 00/M02 A3027 RMK A01 T00011021  RH  086%=      5-min Rain = 0
KEA1 110322Z 19011KT 00/M02 A3027 RMK A01 T00011020  RH  086%=      5-min Rain = 0
KEA1 110323Z 19011KT 00/M02 A3027 RMK A01 T00011021  RH  085%=      5-min Rain = 0
KEA1 110324Z 19011KT 00/M02 A3027 RMK A01 T00011021  RH  085%=      5-min Rain = 0
KEA1 110325Z 19011KT 00/M02 A3027 RMK A01 T00011021  RH  085%=      5-min Rain = 0
KEA1 110326Z 19011KT 00/M02 A3027 RMK A01 T00011021  RH  085%=      5-min Rain = 0
KEA1 110327Z 19011KT 00/M02 A3027 RMK A01 T00011021  RH  085%=      5-min Rain = 0
KEA1 110328Z 19011KT 00/M02 A3027 RMK A01 T00011021  RH  085%=      5-min Rain = 0
KEA1 110329Z 19012KT 00/M02 A3027 RMK A01 T00011021  RH  086%=      5-min Rain = 0
KEA1 110330Z 19012KT 00/M02 A3027 RMK A01 T00011021  RH  086%=      5-min Rain = 0
KEA1 110331Z 19011KT 00/M02 A3027 RMK A01 T00011020  RH  085%=      5-min Rain = 0
KEA1 110332Z 19011KT 00/M02 A3027 RMK A01 T00011021  RH  085%=      5-min Rain = 0
KEA1 110333Z 19012KT 00/02 A3027 RMK A01 T00000-22  RH  085%=      5-min Rain = 0
KEA1 110334Z 19011KT 00/02 A3027 RMK A01 T00000-21  RH  085%=      5-min Rain = 0
KEA1 110335Z 19011KT 00/M02 A3027 RMK A01 T00011021  RH  085%=      5-min Rain = 0
KEA1 110336Z 19011KT 00/02 A3027 RMK A01 T00000-22  RH  085%=      5-min Rain = 0
KEA1 110337Z 19011KT 00/02 A3027 RMK A01 T00000-22  RH  085%=      5-min Rain = 0
KEA1 110338Z 19011KT 00/02 A3027 RMK A01 T00-00-22  RH  085%=      5-min Rain = 0
KEA1 110339Z 20012KT 00/02 A3027 RMK A01 T00-00-22  RH  085%=      5-min Rain = 0
KEA1 110340Z 20012KT 00/02 A3027 RMK A01 T00-00-22  RH  086%=      5-min Rain = 0
KEA1 110341Z 20012KT 00/02 A3027 RMK A01 T00-00-22  RH  085%=      5-min Rain = 0
KEA1 110342Z 20012KT 00/02 A3027 RMK A01 T00000-21  RH  085%=      5-min Rain = 0
KEA1 110343Z 20012KT 00/M02 A3027 RMK A01 T00011022  RH  085%=      5-min Rain = 0
KEA1 110344Z 20012KT 00/M02 A3027 RMK A01 T00011021  RH  085%=      5-min Rain = 0
KEA1 110345Z 20012KT 00/M02 A3027 RMK A01 T00021021  RH  084%=      5-min Rain = 0
KEA1 110346Z 20012KT 00/M02 A3027 RMK A01 T00041021  RH  084%=      5-min Rain = 0
KEA1 110347Z 20012KT 01/M02 A3027 RMK A01 T00051021  RH  083%=      5-min Rain = 0
KEA1 110348Z 19012KT 01/M02 A3027 RMK A01 T00051021  RH  083%=      5-min Rain = 0
KEA1 110349Z 20012KT 01/M02 A3027 RMK A01 T00051022  RH  082%=      5-min Rain = 0
KEA1 110350Z 19012KT 01/M02 A3027 RMK A01 T00051022  RH  082%=      5-min Rain = 0
KEA1 110351Z 20012KT 01/M02 A3027 RMK A01 T00051022  RH  082%=      5-min Rain = 0
KEA1 110352Z 19012KT 01/M02 A3027 RMK A01 T00051023  RH  082%=      5-min Rain = 0
KEA1 110353Z 20012KT 01/M02 A3027 RMK A01 T00051023  RH  082%=      5-min Rain = 0
KEA1 110354Z 20012KT 01/M02 A3027 RMK A01 T00051023  RH  082%=      5-min Rain = 0
KEA1 110355Z 19012KT 01/M02 A3027 RMK A01 T00051023  RH  082%=      5-min Rain = 0
KEA1 110356Z 20012KT 01/M02 A3027 RMK A01 T00051024  RH  081%=      5-min Rain = 0
KEA1 110357Z 20012KT 00/M02 A3027 RMK A01 T00041024  RH  082%=      5-min Rain = 0
KEA1 110358Z 20012KT 00/M02 A3027 RMK A01 T00041024  RH  082%=      5-min Rain = 0
KEA1 110359Z 20012KT 00/M02 A3027 RMK A01 T00041024  RH  081%=      5-min Rain = 0
KEA1 110400Z 19012KT 00/M02 A3027 RMK A01 T00041024  RH  081%=      5-min Rain = 0
KEA1 110401Z 20012KT 00/M03 A3027 RMK A01 T00031025  RH  082%=      5-min Rain = 0
KEA1 110402Z 20012KT 00/M03 A3027 RMK A01 T00031025  RH  081%=      5-min Rain = 0
KEA1 110403Z 20012KT 00/M03 A3027 RMK A01 T00031025  RH  081%=      5-min Rain = 0
KEA1 110404Z 20012KT 00/M03 A3027 RMK A01 T00041025  RH  081%=      5-min Rain = 0
KEA1 110405Z 19012KT 00/M03 A3027 RMK A01 T00041025  RH  081%=      5-min Rain = 0
KEA1 110406Z 20012KT 00/M03 A3027 RMK A01 T00041025  RH  081%=      5-min Rain = 0
KEA1 110407Z 20012KT 01/M03 A3027 RMK A01 T00051025  RH  080%=      5-min Rain = 0
KEA1 110408Z 20012KT 01/M03 A3027 RMK A01 T00061025  RH  080%=      5-min Rain = 0
KEA1 110409Z 20013KT 01/M03 A3027 RMK A01 T00071025  RH  079%=      5-min Rain = 0
KEA1 110410Z 20013KT 01/M02 A3027 RMK A01 T00081024  RH  079%=      5-min Rain = 0
KEA1 110411Z 20013KT 01/M02 A3027 RMK A01 T00091024  RH  078%=      5-min Rain = 0
KEA1 110412Z 20013KT 01/M02 A3027 RMK A01 T00101024  RH  078%=      5-min Rain = 0
KEA1 110413Z 20013KT 01/M02 A3027 RMK A01 T00111024  RH  078%=      5-min Rain = 0
KEA1 110414Z 20013KT 01/M03 A3027 RMK A01 T00111025  RH  077%=      5-min Rain = 0
KEA1 110415Z 20013KT 01/M03 A3027 RMK A01 T00121025  RH  076%=      5-min Rain = 0
KEA1 110416Z 20013KT 01/M03 A3027 RMK A01 T00131025  RH  076%=      5-min Rain = 0
KEA1 110417Z 20013KT 01/M03 A3027 RMK A01 T00141025  RH  075%=      5-min Rain = 0
KEA1 110418Z 20013KT 02/M03 A3027 RMK A01 T00161025  RH  074%=      5-min Rain = 0
KEA1 110419Z 20012KT 02/M03 A3027 RMK A01 T00161025  RH  074%=      5-min Rain = 0
KEA1 110420Z 20013KT 02/M03 A3027 RMK A01 T00161025  RH  074%=      5-min Rain = 0
KEA1 110421Z 20013KT 02/M03 A3027 RMK A01 T00161026  RH  074%=      5-min Rain = 0
KEA1 110422Z 20012KT 02/M03 A3027 RMK A01 T00161026  RH  074%=      5-min Rain = 0
KEA1 110423Z 20012KT 02/M03 A3027 RMK A01 T00161026  RH  074%=      5-min Rain = 0
KEA1 110424Z 20011KT 01/M03 A3027 RMK A01 T00141027  RH  074%=      5-min Rain = 0
KEA1 110425Z 20011KT 01/M03 A3027 RMK A01 T00141027  RH  074%=      5-min Rain = 0
KEA1 110426Z 20011KT 01/M03 A3027 RMK A01 T00131027  RH  075%=      5-min Rain = 0
KEA1 110427Z 20010KT 01/M03 A3027 RMK A01 T00131027  RH  075%=      5-min Rain = 0
KEA1 110428Z 21009KT 01/M03 A3027 RMK A01 T00131027  RH  075%=      5-min Rain = 0
KEA1 110429Z 20010KT 01/M03 A3027 RMK A01 T00131027  RH  075%=      5-min Rain = 0
KEA1 110430Z 20010KT 02/M03 A3027 RMK A01 T00161026  RH  074%=      5-min Rain = 0
KEA1 110431Z 20009KT 02/M03 A3027 RMK A01 T00171027  RH  073%=      5-min Rain = 0
KEA1 110432Z 19009KT 02/M03 A3027 RMK A01 T00161027  RH  073%=      5-min Rain = 0
KEA1 110433Z 19009KT 02/M03 A3027 RMK A01 T00161027  RH  073%=      5-min Rain = 0
KEA1 110434Z 18006KT 02/M03 A3027 RMK A01 T00151028  RH  073%=      5-min Rain = 0
KEA1 110435Z 10003KT 01/M03 A3027 RMK A01 T00101032  RH  073%=      5-min Rain = 0
KEA1 110436Z 05003KT 00/M04 A3027 RMK A01 T00011038  RH  075%=      5-min Rain = 0
KEA1 110437Z 05004KT M01/M04 A3027 RMK A01 T10051038  RH  078%=      5-min Rain = 0
KEA1 110438Z 03002KT M01/M04 A3027 RMK A01 T10081036  RH  081%=      5-min Rain = 0
KEA1 110439Z 04001KT M01/M03 A3027 RMK A01 T10091033  RH  083%=      5-min Rain = 0
KEA1 110440Z 06000KT M01/M03 A3027 RMK A01 T10071031  RH  084%=      5-min Rain = 0
KEA1 110441Z 06000KT M01/M03 A3027 RMK A01 T10051029  RH  084%=      5-min Rain = 0
KEA1 110442Z 24002KT M00/M03 A3027 RMK A01 T10031028  RH  083%=      5-min Rain = 0
KEA1 110443Z 23004KT 00/M03 A3027 RMK A01 T00011026  RH  082%=      5-min Rain = 0
KEA1 110444Z 21005KT 01/M03 A3027 RMK A01 T00051027  RH  080%=      5-min Rain = 0
KEA1 110445Z 20007KT 01/M03 A3027 RMK A01 T00061029  RH  078%=      5-min Rain = 0
KEA1 110446Z 19004KT 01/M03 A3027 RMK A01 T00091028  RH  076%=      5-min Rain = 0
KEA1 110447Z 14002KT 01/M03 A3027 RMK A01 T00081030  RH  076%=      5-min Rain = 0
KEA1 110448Z 12002KT 00/M03 A3028 RMK A01 T00031033  RH  077%=      5-min Rain = 0
KEA1 110449Z 11002KT M00/M04 A3028 RMK A01 T10031036  RH  078%=      5-min Rain = 0
KEA1 110450Z 12002KT M01/M04 A3028 RMK A01 T10081037  RH  081%=      5-min Rain = 0
KEA1 110451Z 15002KT M01/M03 A3028 RMK A01 T10091034  RH  084%=      5-min Rain = 0
KEA1 110452Z 17001KT M01/M03 A3028 RMK A01 T10101032  RH  085%=      5-min Rain = 0
KEA1 110453Z 18003KT M01/M03 A3028 RMK A01 T10091030  RH  085%=      5-min Rain = 0
KEA1 110454Z 18004KT M01/M03 A3028 RMK A01 T10081030  RH  085%=      5-min Rain = 0
KEA1 110455Z 20003KT M01/M03 A3027 RMK A01 T10081032  RH  084%=      5-min Rain = 0
KEA1 110456Z 19003KT M01/M03 A3027 RMK A01 T10071033  RH  083%=      5-min Rain = 0
KEA1 110457Z 23002KT M01/M03 A3027 RMK A01 T10071033  RH  083%=      5-min Rain = 0
KEA1 110458Z 26002KT M01/M03 A3028 RMK A01 T10061031  RH  083%=      5-min Rain = 0
KEA1 110459Z 25004KT M01/M03 A3028 RMK A01 T10051030  RH  083%=      5-min Rain = 0
KEA1 110500Z 24005KT M00/M03 A3028 RMK A01 T10031029  RH  082%=      5-min Rain = 0
KEA1 110501Z 26003KT M00/M03 A3028 RMK A01 T10011030  RH  081%=      5-min Rain = 0
KEA1 110502Z 29003KT M00/M03 A3028 RMK A01 T10011032  RH  080%=      5-min Rain = 0
KEA1 110503Z 27004KT M00/M03 A3028 RMK A01 T10031033  RH  080%=      5-min Rain = 0
KEA1 110504Z 26004KT M00/M03 A3028 RMK A01 T10031032  RH  081%=      5-min Rain = 0
KEA1 110505Z 26004KT M00/M03 A3028 RMK A01 T10031032  RH  081%=      5-min Rain = 0
KEA1 110506Z 28004KT M00/M03 A3028 RMK A01 T10021030  RH  081%=      5-min Rain = 0
KEA1 110507Z 29003KT M00/M03 A3028 RMK A01 T10031032  RH  081%=      5-min Rain = 0
KEA1 110508Z 29003KT M01/M04 A3028 RMK A01 T10061036  RH  080%=      5-min Rain = 0
KEA1 110509Z 29003KT M01/M04 A3027 RMK A01 T10091039  RH  081%=      5-min Rain = 0
KEA1 110510Z 28003KT M01/M04 A3027 RMK A01 T10121039  RH  082%=      5-min Rain = 0
KEA1 110511Z 29002KT M01/M04 A3027 RMK A01 T10131039  RH  083%=      5-min Rain = 0
KEA1 110512Z 27001KT M01/M04 A3027 RMK A01 T10141037  RH  084%=      5-min Rain = 0
KEA1 110513Z 27001KT M01/M04 A3027 RMK A01 T10141036  RH  085%=      5-min Rain = 0
KEA1 110514Z 27001KT M01/M04 A3027 RMK A01 T10141036  RH  085%=      5-min Rain = 0
KEA1 110515Z 29001KT M01/M04 A3027 RMK A01 T10141036  RH  085%=      5-min Rain = 0
KEA1 110516Z 26001KT M01/M04 A3027 RMK A01 T10141036  RH  085%=      5-min Rain = 0
KEA1 110517Z 28002KT M02/M04 A3027 RMK A01 T10151036  RH  085%=      5-min Rain = 0
KEA1 110518Z 26001KT M01/M04 A3027 RMK A01 T10141035  RH  086%=      5-min Rain = 0
KEA1 110519Z 24001KT M01/M04 A3027 RMK A01 T10141035  RH  086%=      5-min Rain = 0
KEA1 110520Z 27002KT M01/M04 A3027 RMK A01 T10141035  RH  086%=      5-min Rain = 0
KEA1 110521Z 28002KT M01/M04 A3027 RMK A01 T10141035  RH  086%=      5-min Rain = 0
KEA1 110522Z 29003KT M01/M04 A3027 RMK A01 T10141035  RH  086%=      5-min Rain = 0
KEA1 110523Z 27002KT M01/M04 A3027 RMK A01 T10141035  RH  086%=      5-min Rain = 0
KEA1 110524Z 27004KT M02/M04 A3027 RMK A01 T10151035  RH  086%=      5-min Rain = 0
KEA1 110525Z 26003KT M02/M04 A3027 RMK A01 T10151035  RH  086%=      5-min Rain = 0
KEA1 110526Z 26002KT M02/M04 A3027 RMK A01 T10151035  RH  086%=      5-min Rain = 0
KEA1 110527Z 23001KT M02/M04 A3027 RMK A01 T10151035  RH  086%=      5-min Rain = 0
KEA1 110528Z 24003KT M02/M03 A3027 RMK A01 T10151034  RH  087%=      5-min Rain = 0
KEA1 110529Z 22002KT M01/M03 A3027 RMK A01 T10141033  RH  087%=      5-min Rain = 0
KEA1 110530Z 25003KT M01/M03 A3027 RMK A01 T10121031  RH  087%=      5-min Rain = 0
KEA1 110531Z 21001KT M01/M03 A3027 RMK A01 T10111031  RH  086%=      5-min Rain = 0
KEA1 110532Z 22002KT M01/M03 A3027 RMK A01 T10111032  RH  085%=      5-min Rain = 0
KEA1 110533Z 22002KT M01/M03 A3027 RMK A01 T10101032  RH  085%=      5-min Rain = 0
KEA1 110534Z 26004KT M01/M03 A3027 RMK A01 T10091032  RH  085%=      5-min Rain = 0
KEA1 110535Z 24003KT M01/M03 A3027 RMK A01 T10091032  RH  084%=      5-min Rain = 0
KEA1 110536Z 26003KT M01/M03 A3027 RMK A01 T10091033  RH  084%=      5-min Rain = 0
KEA1 110537Z 26003KT M01/M04 A3026 RMK A01 T10101035  RH  083%=      5-min Rain = 0
KEA1 110538Z 25004KT M01/M04 A3026 RMK A01 T10111036  RH  083%=      5-min Rain = 0
KEA1 110539Z 23003KT M01/M04 A3026 RMK A01 T10121036  RH  084%=      5-min Rain = 0
KEA1 110540Z 24002KT M01/M04 A3026 RMK A01 T10121035  RH  084%=      5-min Rain = 0
KEA1 110541Z 23002KT M01/M03 A3026 RMK A01 T10121034  RH  085%=      5-min Rain = 0
KEA1 110542Z 23003KT M01/M03 A3026 RMK A01 T10111033  RH  085%=      5-min Rain = 0
KEA1 110543Z 24004KT M01/M03 A3026 RMK A01 T10091030  RH  085%=      5-min Rain = 0
KEA1 110544Z 23003KT M01/M03 A3026 RMK A01 T10071030  RH  084%=      5-min Rain = 0
KEA1 110545Z 24003KT M01/M03 A3026 RMK A01 T10071031  RH  084%=      5-min Rain = 0
KEA1 110546Z 24004KT M01/M03 A3026 RMK A01 T10061030  RH  084%=      5-min Rain = 0
KEA1 110547Z 24004KT M01/M03 A3026 RMK A01 T10061030  RH  084%=      5-min Rain = 0
KEA1 110548Z 24005KT M01/M03 A3026 RMK A01 T10051029  RH  084%=      5-min Rain = 0
KEA1 110549Z 23004KT M01/M03 A3026 RMK A01 T10051029  RH  084%=      5-min Rain = 0
KEA1 110550Z 24003KT M01/M03 A3026 RMK A01 T10051030  RH  084%=      5-min Rain = 0
KEA1 110551Z 23004KT M01/M03 A3026 RMK A01 T10061031  RH  083%=      5-min Rain = 0
KEA1 110552Z 23003KT M01/M03 A3026 RMK A01 T10071032  RH  083%=      5-min Rain = 0
KEA1 110553Z 23003KT M01/M03 A3026 RMK A01 T10081032  RH  084%=      5-min Rain = 0
KEA1 110554Z 23003KT M01/M03 A3026 RMK A01 T10081031  RH  084%=      5-min Rain = 0
KEA1 110555Z 24004KT M01/M03 A3026 RMK A01 T10071030  RH  085%=      5-min Rain = 0
KEA1 110556Z 24004KT M01/M03 A3026 RMK A01 T10081031  RH  084%=      5-min Rain = 0
KEA1 110557Z 23004KT M01/M03 A3026 RMK A01 T10071030  RH  085%=      5-min Rain = 0
KEA1 110558Z 24005KT M01/M03 A3026 RMK A01 T10071029  RH  085%=      5-min Rain = 0
KEA1 110559Z 22004KT M01/M03 A3026 RMK A01 T10071031  RH  084%=      5-min Rain = 0

Page generated in 0.0367 seconds.